GrowTek Testauswertung
Test-ID: TEST-2026-08-21-001
Name: SHT41 Teststation
Start: 2026-08-21 18:13:25
Ende: 2026-08-22 17:09:03
Status: finished
Diagramme und Statistiken umfassen alle diesem Test zugeordneten Messungen, getrennt nach Sensor.
SHT41 Test (#1)
1366 Messungen
Letzte Werte im Test · 2026-08-22 17:08:12
Temperatur: 23,38 °C
Luftfeuchte: 63,38 %
Temperatur (°C)
| Minimum | 22,02 °C |
|---|---|
| Maximum | 24,74 °C |
| Durchschnitt | 23,11 °C |
| Gültige Messungen | 1366 |
Luftfeuchte (%)
| Minimum | 63,17 % |
|---|---|
| Maximum | 68,72 % |
| Durchschnitt | 67,02 % |
| Gültige Messungen | 1366 |
Messwerttabelle (1366 Einträge)
| Zeit | Temperatur | Luftfeuchte |
|---|---|---|
| 2026-08-21 18:14:19 | 24,46 °C | 66,26 % |
| 2026-08-21 18:15:19 | 24,47 °C | 66,24 % |
| 2026-08-21 18:16:19 | 24,46 °C | 66,23 % |
| 2026-08-21 18:17:19 | 24,47 °C | 66,21 % |
| 2026-08-21 18:18:19 | 24,47 °C | 66,21 % |
| 2026-08-21 18:19:19 | 24,48 °C | 66,20 % |
| 2026-08-21 18:20:19 | 24,47 °C | 66,19 % |
| 2026-08-21 18:21:19 | 24,48 °C | 66,21 % |
| 2026-08-21 18:22:19 | 24,48 °C | 66,20 % |
| 2026-08-21 18:23:19 | 24,48 °C | 66,19 % |
| 2026-08-21 18:24:19 | 24,48 °C | 66,20 % |
| 2026-08-21 18:25:21 | 24,50 °C | 66,21 % |
| 2026-08-21 18:26:19 | 24,51 °C | 66,22 % |
| 2026-08-21 18:27:19 | 24,48 °C | 66,18 % |
| 2026-08-21 18:28:19 | 24,53 °C | 66,21 % |
| 2026-08-21 18:29:19 | 24,50 °C | 66,20 % |
| 2026-08-21 18:30:19 | 24,50 °C | 66,18 % |
| 2026-08-21 18:31:19 | 24,50 °C | 66,14 % |
| 2026-08-21 18:32:19 | 24,52 °C | 66,04 % |
| 2026-08-21 18:33:19 | 24,51 °C | 66,03 % |
| 2026-08-21 18:34:19 | 24,49 °C | 65,94 % |
| 2026-08-21 18:35:19 | 24,52 °C | 65,99 % |
| 2026-08-21 18:36:19 | 24,52 °C | 66,01 % |
| 2026-08-21 18:37:19 | 24,52 °C | 65,98 % |
| 2026-08-21 18:38:19 | 24,54 °C | 65,94 % |
| 2026-08-21 18:39:19 | 24,52 °C | 65,94 % |
| 2026-08-21 18:40:19 | 24,52 °C | 65,91 % |
| 2026-08-21 18:41:19 | 24,55 °C | 65,85 % |
| 2026-08-21 18:42:19 | 24,54 °C | 65,86 % |
| 2026-08-21 18:43:19 | 24,55 °C | 65,87 % |
| 2026-08-21 18:44:19 | 24,55 °C | 65,83 % |
| 2026-08-21 18:45:19 | 24,55 °C | 65,81 % |
| 2026-08-21 18:46:19 | 24,55 °C | 65,82 % |
| 2026-08-21 18:47:19 | 24,54 °C | 65,84 % |
| 2026-08-21 18:48:19 | 24,56 °C | 65,86 % |
| 2026-08-21 18:49:21 | 24,56 °C | 65,88 % |
| 2026-08-21 18:50:19 | 24,59 °C | 65,92 % |
| 2026-08-21 18:51:19 | 24,56 °C | 65,87 % |
| 2026-08-21 18:52:19 | 24,59 °C | 65,83 % |
| 2026-08-21 18:53:19 | 24,57 °C | 65,85 % |
| 2026-08-21 18:54:19 | 24,56 °C | 65,85 % |
| 2026-08-21 18:55:19 | 24,59 °C | 65,85 % |
| 2026-08-21 18:56:19 | 24,58 °C | 65,85 % |
| 2026-08-21 18:57:19 | 24,60 °C | 65,86 % |
| 2026-08-21 18:58:19 | 24,59 °C | 65,88 % |
| 2026-08-21 18:59:19 | 24,60 °C | 65,90 % |
| 2026-08-21 19:00:19 | 24,61 °C | 65,94 % |
| 2026-08-21 19:02:26 | 24,62 °C | 65,97 % |
| 2026-08-21 19:03:26 | 24,61 °C | 65,93 % |
| 2026-08-21 19:04:26 | 24,64 °C | 65,95 % |
| 2026-08-21 19:05:26 | 24,64 °C | 65,96 % |
| 2026-08-21 19:06:26 | 24,64 °C | 65,96 % |
| 2026-08-21 19:07:26 | 24,64 °C | 66,00 % |
| 2026-08-21 19:08:26 | 24,64 °C | 66,02 % |
| 2026-08-21 19:09:26 | 24,64 °C | 66,02 % |
| 2026-08-21 19:10:26 | 24,66 °C | 66,00 % |
| 2026-08-21 19:11:26 | 24,65 °C | 66,03 % |
| 2026-08-21 19:12:26 | 24,64 °C | 66,05 % |
| 2026-08-21 19:13:26 | 24,66 °C | 66,07 % |
| 2026-08-21 19:14:27 | 24,67 °C | 66,06 % |
| 2026-08-21 19:15:26 | 24,66 °C | 65,99 % |
| 2026-08-21 19:16:26 | 24,66 °C | 65,96 % |
| 2026-08-21 19:17:26 | 24,66 °C | 66,02 % |
| 2026-08-21 19:18:26 | 24,65 °C | 65,95 % |
| 2026-08-21 19:19:26 | 24,66 °C | 65,96 % |
| 2026-08-21 19:20:26 | 24,65 °C | 65,91 % |
| 2026-08-21 19:21:26 | 24,64 °C | 65,98 % |
| 2026-08-21 19:22:26 | 24,65 °C | 65,94 % |
| 2026-08-21 19:23:26 | 24,68 °C | 65,92 % |
| 2026-08-21 19:24:26 | 24,67 °C | 65,90 % |
| 2026-08-21 19:25:26 | 24,67 °C | 65,94 % |
| 2026-08-21 19:26:27 | 24,66 °C | 65,91 % |
| 2026-08-21 19:27:26 | 24,66 °C | 65,83 % |
| 2026-08-21 19:28:26 | 24,67 °C | 65,86 % |
| 2026-08-21 19:29:26 | 24,67 °C | 65,84 % |
| 2026-08-21 19:30:26 | 24,65 °C | 65,77 % |
| 2026-08-21 19:31:26 | 24,68 °C | 65,80 % |
| 2026-08-21 19:32:26 | 24,68 °C | 65,72 % |
| 2026-08-21 19:33:26 | 24,66 °C | 65,72 % |
| 2026-08-21 19:34:26 | 24,68 °C | 65,70 % |
| 2026-08-21 19:35:26 | 24,67 °C | 65,72 % |
| 2026-08-21 19:36:26 | 24,68 °C | 65,70 % |
| 2026-08-21 19:37:26 | 24,67 °C | 65,61 % |
| 2026-08-21 19:38:37 | 24,68 °C | 65,64 % |
| 2026-08-21 19:39:32 | 24,68 °C | 65,62 % |
| 2026-08-21 19:40:32 | 24,68 °C | 65,63 % |
| 2026-08-21 19:41:32 | 24,71 °C | 65,60 % |
| 2026-08-21 19:42:32 | 24,67 °C | 65,57 % |
| 2026-08-21 19:43:32 | 24,70 °C | 65,61 % |
| 2026-08-21 19:44:32 | 24,68 °C | 65,58 % |
| 2026-08-21 19:45:32 | 24,69 °C | 65,64 % |
| 2026-08-21 19:46:32 | 24,68 °C | 65,65 % |
| 2026-08-21 19:47:32 | 24,67 °C | 65,66 % |
| 2026-08-21 19:48:32 | 24,69 °C | 65,64 % |
| 2026-08-21 19:49:32 | 24,69 °C | 65,62 % |
| 2026-08-21 19:50:34 | 24,70 °C | 65,62 % |
| 2026-08-21 19:51:32 | 24,69 °C | 65,57 % |
| 2026-08-21 19:52:32 | 24,71 °C | 65,55 % |
| 2026-08-21 19:53:32 | 24,72 °C | 65,52 % |
| 2026-08-21 19:54:32 | 24,70 °C | 65,50 % |
| 2026-08-21 19:55:32 | 24,72 °C | 65,50 % |
| 2026-08-21 19:56:32 | 24,73 °C | 65,47 % |
| 2026-08-21 19:57:32 | 24,73 °C | 65,50 % |
| 2026-08-21 19:58:32 | 24,73 °C | 65,45 % |
| 2026-08-21 19:59:32 | 24,73 °C | 65,43 % |
| 2026-08-21 20:00:32 | 24,72 °C | 65,42 % |
| 2026-08-21 20:01:32 | 24,74 °C | 65,44 % |
| 2026-08-21 20:02:33 | 24,73 °C | 65,41 % |
| 2026-08-21 20:03:32 | 24,74 °C | 65,40 % |
| 2026-08-21 20:04:32 | 24,74 °C | 65,43 % |
| 2026-08-21 20:05:33 | 24,72 °C | 65,44 % |
| 2026-08-21 20:06:32 | 24,71 °C | 65,48 % |
| 2026-08-21 20:07:33 | 24,73 °C | 65,37 % |
| 2026-08-21 20:08:32 | 24,72 °C | 65,36 % |
| 2026-08-21 20:09:32 | 24,71 °C | 65,41 % |
| 2026-08-21 20:10:32 | 24,74 °C | 65,42 % |
| 2026-08-21 20:11:32 | 24,70 °C | 65,39 % |
| 2026-08-21 20:12:32 | 24,70 °C | 65,38 % |
| 2026-08-21 20:13:32 | 24,68 °C | 65,37 % |
| 2026-08-21 20:14:32 | 24,69 °C | 65,38 % |
| 2026-08-21 20:15:32 | 24,68 °C | 65,43 % |
| 2026-08-21 20:16:32 | 24,69 °C | 65,39 % |
| 2026-08-21 20:17:32 | 24,67 °C | 65,41 % |
| 2026-08-21 20:18:32 | 24,69 °C | 65,39 % |
| 2026-08-21 20:19:32 | 24,69 °C | 65,39 % |
| 2026-08-21 20:20:33 | 24,70 °C | 65,37 % |
| 2026-08-21 20:21:32 | 24,67 °C | 65,34 % |
| 2026-08-21 20:22:32 | 24,68 °C | 65,32 % |
| 2026-08-21 20:23:32 | 24,66 °C | 65,38 % |
| 2026-08-21 20:24:32 | 24,67 °C | 65,40 % |
| 2026-08-21 20:25:32 | 24,66 °C | 65,38 % |
| 2026-08-21 20:26:32 | 24,63 °C | 65,43 % |
| 2026-08-21 20:27:34 | 24,66 °C | 65,36 % |
| 2026-08-21 20:28:32 | 24,65 °C | 65,36 % |
| 2026-08-21 20:29:32 | 24,64 °C | 65,37 % |
| 2026-08-21 20:30:32 | 24,65 °C | 65,35 % |
| 2026-08-21 20:31:33 | 24,65 °C | 65,33 % |
| 2026-08-21 20:32:32 | 24,65 °C | 65,35 % |
| 2026-08-21 20:33:32 | 24,66 °C | 65,34 % |
| 2026-08-21 20:34:32 | 24,65 °C | 65,33 % |
| 2026-08-21 20:35:32 | 24,66 °C | 65,32 % |
| 2026-08-21 20:36:32 | 24,65 °C | 65,34 % |
| 2026-08-21 20:37:32 | 24,62 °C | 65,41 % |
| 2026-08-21 20:38:32 | 24,64 °C | 65,41 % |
| 2026-08-21 20:39:34 | 24,63 °C | 65,36 % |
| 2026-08-21 20:40:37 | 24,61 °C | 65,36 % |
| 2026-08-21 20:41:32 | 24,63 °C | 65,40 % |
| 2026-08-21 20:42:32 | 24,64 °C | 65,41 % |
| 2026-08-21 20:43:32 | 24,64 °C | 65,38 % |
| 2026-08-21 20:44:35 | 24,64 °C | 65,41 % |
| 2026-08-21 20:45:32 | 24,62 °C | 65,37 % |
| 2026-08-21 20:46:32 | 24,64 °C | 65,40 % |
| 2026-08-21 20:47:32 | 24,63 °C | 65,37 % |
| 2026-08-21 20:48:32 | 24,61 °C | 65,40 % |
| 2026-08-21 20:49:33 | 24,62 °C | 65,43 % |
| 2026-08-21 20:50:32 | 24,60 °C | 65,44 % |
| 2026-08-21 20:51:32 | 24,63 °C | 65,44 % |
| 2026-08-21 20:52:32 | 24,62 °C | 65,47 % |
| 2026-08-21 20:53:33 | 24,64 °C | 65,48 % |
| 2026-08-21 20:54:32 | 24,63 °C | 65,41 % |
| 2026-08-21 20:55:32 | 24,62 °C | 65,42 % |
| 2026-08-21 20:56:32 | 24,63 °C | 65,42 % |
| 2026-08-21 20:57:33 | 24,60 °C | 65,47 % |
| 2026-08-21 20:58:32 | 24,60 °C | 65,49 % |
| 2026-08-21 20:59:32 | 24,60 °C | 65,49 % |
| 2026-08-21 21:00:32 | 24,59 °C | 65,55 % |
| 2026-08-21 21:01:32 | 24,59 °C | 65,46 % |
| 2026-08-21 21:02:32 | 24,60 °C | 65,50 % |
| 2026-08-21 21:03:32 | 24,60 °C | 65,51 % |
| 2026-08-21 21:04:32 | 24,57 °C | 65,52 % |
| 2026-08-21 21:05:32 | 24,58 °C | 65,58 % |
| 2026-08-21 21:06:32 | 24,54 °C | 65,62 % |
| 2026-08-21 21:07:32 | 24,54 °C | 65,68 % |
| 2026-08-21 21:08:34 | 24,53 °C | 65,74 % |
| 2026-08-21 21:09:32 | 24,52 °C | 65,78 % |
| 2026-08-21 21:10:32 | 24,51 °C | 65,83 % |
| 2026-08-21 21:11:33 | 24,54 °C | 65,87 % |
| 2026-08-21 21:12:32 | 24,55 °C | 65,90 % |
| 2026-08-21 21:13:32 | 24,56 °C | 65,91 % |
| 2026-08-21 21:14:32 | 24,55 °C | 65,94 % |
| 2026-08-21 21:15:32 | 24,57 °C | 65,92 % |
| 2026-08-21 21:16:32 | 24,57 °C | 65,97 % |
| 2026-08-21 21:17:33 | 24,56 °C | 66,00 % |
| 2026-08-21 21:18:32 | 24,59 °C | 66,00 % |
| 2026-08-21 21:19:32 | 24,60 °C | 66,06 % |
| 2026-08-21 21:20:32 | 24,60 °C | 66,04 % |
| 2026-08-21 21:21:34 | 24,62 °C | 66,04 % |
| 2026-08-21 21:22:33 | 24,61 °C | 66,08 % |
| 2026-08-21 21:23:32 | 24,61 °C | 66,08 % |
| 2026-08-21 21:24:32 | 24,62 °C | 66,12 % |
| 2026-08-21 21:25:32 | 24,62 °C | 66,15 % |
| 2026-08-21 21:26:32 | 24,61 °C | 66,17 % |
| 2026-08-21 21:27:32 | 24,62 °C | 66,23 % |
| 2026-08-21 21:28:32 | 24,63 °C | 66,20 % |
| 2026-08-21 21:29:32 | 24,62 °C | 66,27 % |
| 2026-08-21 21:30:33 | 24,63 °C | 66,31 % |
| 2026-08-21 21:31:32 | 24,65 °C | 66,32 % |
| 2026-08-21 21:32:34 | 24,65 °C | 66,40 % |
| 2026-08-21 21:33:32 | 24,67 °C | 66,40 % |
| 2026-08-21 21:34:32 | 24,64 °C | 66,45 % |
| 2026-08-21 21:35:32 | 24,62 °C | 66,49 % |
| 2026-08-21 21:36:32 | 24,65 °C | 66,53 % |
| 2026-08-21 21:37:32 | 24,61 °C | 66,48 % |
| 2026-08-21 21:38:33 | 24,60 °C | 66,56 % |
| 2026-08-21 21:39:33 | 24,60 °C | 66,58 % |
| 2026-08-21 21:40:33 | 24,56 °C | 66,61 % |
| 2026-08-21 21:41:33 | 24,59 °C | 66,65 % |
| 2026-08-21 21:42:33 | 24,55 °C | 66,67 % |
| 2026-08-21 21:43:32 | 24,58 °C | 66,75 % |
| 2026-08-21 21:44:33 | 24,55 °C | 66,77 % |
| 2026-08-21 21:45:33 | 24,53 °C | 66,81 % |
| 2026-08-21 21:46:33 | 24,54 °C | 66,88 % |
| 2026-08-21 21:47:33 | 24,53 °C | 66,88 % |
| 2026-08-21 21:48:33 | 24,52 °C | 66,91 % |
| 2026-08-21 21:49:33 | 24,51 °C | 66,97 % |
| 2026-08-21 21:50:32 | 24,50 °C | 66,98 % |
| 2026-08-21 21:51:33 | 24,51 °C | 67,02 % |
| 2026-08-21 21:52:33 | 24,50 °C | 67,05 % |
| 2026-08-21 21:53:33 | 24,49 °C | 67,09 % |
| 2026-08-21 21:54:33 | 24,48 °C | 67,10 % |
| 2026-08-21 21:55:33 | 24,47 °C | 67,13 % |
| 2026-08-21 21:56:33 | 24,48 °C | 67,18 % |
| 2026-08-21 21:57:34 | 24,47 °C | 67,17 % |
| 2026-08-21 21:58:34 | 24,47 °C | 67,19 % |
| 2026-08-21 21:59:33 | 24,47 °C | 67,24 % |
| 2026-08-21 22:00:34 | 24,45 °C | 67,26 % |
| 2026-08-21 22:01:33 | 24,44 °C | 67,27 % |
| 2026-08-21 22:02:33 | 24,44 °C | 67,30 % |
| 2026-08-21 22:03:33 | 24,45 °C | 67,27 % |
| 2026-08-21 22:04:35 | 24,46 °C | 67,32 % |
| 2026-08-21 22:05:33 | 24,47 °C | 67,33 % |
| 2026-08-21 22:06:33 | 24,46 °C | 67,37 % |
| 2026-08-21 22:07:33 | 24,48 °C | 67,34 % |
| 2026-08-21 22:08:33 | 24,50 °C | 67,34 % |
| 2026-08-21 22:09:34 | 24,49 °C | 67,36 % |
| 2026-08-21 22:10:33 | 24,47 °C | 67,35 % |
| 2026-08-21 22:11:33 | 24,47 °C | 67,34 % |
| 2026-08-21 22:12:33 | 24,47 °C | 67,36 % |
| 2026-08-21 22:13:33 | 24,46 °C | 67,36 % |
| 2026-08-21 22:14:33 | 24,44 °C | 67,38 % |
| 2026-08-21 22:15:33 | 24,44 °C | 67,38 % |
| 2026-08-21 22:16:33 | 24,43 °C | 67,39 % |
| 2026-08-21 22:17:33 | 24,41 °C | 67,42 % |
| 2026-08-21 22:18:33 | 24,39 °C | 67,47 % |
| 2026-08-21 22:19:33 | 24,39 °C | 67,48 % |
| 2026-08-21 22:20:33 | 24,35 °C | 67,47 % |
| 2026-08-21 22:21:33 | 24,36 °C | 67,53 % |
| 2026-08-21 22:22:33 | 24,35 °C | 67,55 % |
| 2026-08-21 22:23:33 | 24,37 °C | 67,57 % |
| 2026-08-21 22:24:33 | 24,34 °C | 67,59 % |
| 2026-08-21 22:25:33 | 24,34 °C | 67,60 % |
| 2026-08-21 22:26:33 | 24,34 °C | 67,61 % |
| 2026-08-21 22:27:33 | 24,32 °C | 67,63 % |
| 2026-08-21 22:28:33 | 24,34 °C | 67,61 % |
| 2026-08-21 22:29:33 | 24,33 °C | 67,61 % |
| 2026-08-21 22:30:33 | 24,34 °C | 67,62 % |
| 2026-08-21 22:31:33 | 24,33 °C | 67,61 % |
| 2026-08-21 22:32:33 | 24,31 °C | 67,60 % |
| 2026-08-21 22:33:34 | 24,34 °C | 67,63 % |
| 2026-08-21 22:34:34 | 24,31 °C | 67,65 % |
| 2026-08-21 22:35:33 | 24,30 °C | 67,66 % |
| 2026-08-21 22:36:33 | 24,31 °C | 67,66 % |
| 2026-08-21 22:37:33 | 24,29 °C | 67,67 % |
| 2026-08-21 22:38:35 | 24,30 °C | 67,70 % |
| 2026-08-21 22:39:33 | 24,27 °C | 67,70 % |
| 2026-08-21 22:40:33 | 24,28 °C | 67,74 % |
| 2026-08-21 22:41:33 | 24,27 °C | 67,76 % |
| 2026-08-21 22:42:33 | 24,27 °C | 67,78 % |
| 2026-08-21 22:43:33 | 24,26 °C | 67,78 % |
| 2026-08-21 22:44:33 | 24,26 °C | 67,79 % |
| 2026-08-21 22:45:33 | 24,21 °C | 67,78 % |
| 2026-08-21 22:46:33 | 24,25 °C | 67,82 % |
| 2026-08-21 22:49:33 | 24,24 °C | 67,85 % |
| 2026-08-21 22:50:33 | 24,24 °C | 67,86 % |
| 2026-08-21 22:51:33 | 24,26 °C | 67,85 % |
| 2026-08-21 22:52:33 | 24,26 °C | 67,85 % |
| 2026-08-21 22:53:37 | 24,26 °C | 67,82 % |
| 2026-08-21 22:54:33 | 24,25 °C | 67,84 % |
| 2026-08-21 22:55:33 | 24,27 °C | 67,84 % |
| 2026-08-21 22:56:34 | 24,27 °C | 67,88 % |
| 2026-08-21 22:57:33 | 24,25 °C | 67,87 % |
| 2026-08-21 22:58:33 | 24,28 °C | 67,88 % |
| 2026-08-21 22:59:33 | 24,26 °C | 67,88 % |
| 2026-08-21 23:00:33 | 24,24 °C | 67,87 % |
| 2026-08-21 23:01:33 | 24,24 °C | 67,88 % |
| 2026-08-21 23:02:33 | 24,22 °C | 67,88 % |
| 2026-08-21 23:03:33 | 24,27 °C | 67,90 % |
| 2026-08-21 23:04:33 | 24,23 °C | 67,91 % |
| 2026-08-21 23:05:33 | 24,20 °C | 67,87 % |
| 2026-08-21 23:06:33 | 24,18 °C | 67,85 % |
| 2026-08-21 23:07:33 | 24,19 °C | 67,87 % |
| 2026-08-21 23:08:33 | 24,15 °C | 67,88 % |
| 2026-08-21 23:09:33 | 24,11 °C | 67,88 % |
| 2026-08-21 23:10:33 | 24,10 °C | 67,93 % |
| 2026-08-21 23:11:33 | 24,08 °C | 67,93 % |
| 2026-08-21 23:12:33 | 24,07 °C | 67,93 % |
| 2026-08-21 23:13:33 | 24,08 °C | 67,93 % |
| 2026-08-21 23:14:33 | 24,05 °C | 67,94 % |
| 2026-08-21 23:15:33 | 24,02 °C | 67,99 % |
| 2026-08-21 23:16:33 | 24,01 °C | 67,94 % |
| 2026-08-21 23:17:34 | 23,96 °C | 67,99 % |
| 2026-08-21 23:18:33 | 23,96 °C | 68,00 % |
| 2026-08-21 23:19:33 | 23,96 °C | 68,03 % |
| 2026-08-21 23:21:42 | 23,92 °C | 67,98 % |
| 2026-08-21 23:22:44 | 23,93 °C | 68,01 % |
| 2026-08-21 23:23:42 | 23,92 °C | 67,99 % |
| 2026-08-21 23:24:42 | 23,89 °C | 67,98 % |
| 2026-08-21 23:25:44 | 23,88 °C | 68,01 % |
| 2026-08-21 23:26:43 | 23,89 °C | 67,99 % |
| 2026-08-21 23:27:43 | 23,87 °C | 68,01 % |
| 2026-08-21 23:28:42 | 23,86 °C | 68,01 % |
| 2026-08-21 23:29:42 | 23,85 °C | 68,00 % |
| 2026-08-21 23:30:45 | 23,86 °C | 67,99 % |
| 2026-08-21 23:31:42 | 23,83 °C | 67,96 % |
| 2026-08-21 23:32:42 | 23,84 °C | 67,97 % |
| 2026-08-21 23:33:42 | 23,83 °C | 67,98 % |
| 2026-08-21 23:34:42 | 23,80 °C | 67,98 % |
| 2026-08-21 23:35:42 | 23,79 °C | 68,03 % |
| 2026-08-21 23:36:42 | 23,77 °C | 67,98 % |
| 2026-08-21 23:37:42 | 23,76 °C | 67,99 % |
| 2026-08-21 23:38:42 | 23,76 °C | 68,00 % |
| 2026-08-21 23:39:42 | 23,76 °C | 68,02 % |
| 2026-08-21 23:40:42 | 23,74 °C | 68,00 % |
| 2026-08-21 23:41:42 | 23,72 °C | 68,03 % |
| 2026-08-21 23:42:43 | 23,70 °C | 68,02 % |
| 2026-08-21 23:43:42 | 23,69 °C | 67,98 % |
| 2026-08-21 23:44:42 | 23,70 °C | 67,97 % |
| 2026-08-21 23:45:45 | 23,66 °C | 67,97 % |
| 2026-08-21 23:46:42 | 23,65 °C | 68,01 % |
| 2026-08-21 23:47:42 | 23,66 °C | 68,02 % |
| 2026-08-21 23:48:42 | 23,63 °C | 67,99 % |
| 2026-08-21 23:49:42 | 23,62 °C | 68,00 % |
| 2026-08-21 23:50:42 | 23,60 °C | 67,98 % |
| 2026-08-21 23:51:42 | 23,58 °C | 67,97 % |
| 2026-08-21 23:52:42 | 23,55 °C | 68,01 % |
| 2026-08-21 23:53:42 | 23,57 °C | 68,02 % |
| 2026-08-21 23:54:42 | 23,53 °C | 68,03 % |
| 2026-08-21 23:55:42 | 23,53 °C | 68,01 % |
| 2026-08-21 23:56:42 | 23,52 °C | 67,99 % |
| 2026-08-21 23:57:42 | 23,49 °C | 67,99 % |
| 2026-08-21 23:58:43 | 23,49 °C | 68,01 % |
| 2026-08-21 23:59:42 | 23,47 °C | 67,97 % |
| 2026-08-22 00:00:42 | 23,46 °C | 67,98 % |
| 2026-08-22 00:01:42 | 23,49 °C | 68,01 % |
| 2026-08-22 00:02:42 | 23,45 °C | 67,93 % |
| 2026-08-22 00:03:42 | 23,44 °C | 67,91 % |
| 2026-08-22 00:04:42 | 23,42 °C | 67,96 % |
| 2026-08-22 00:05:42 | 23,43 °C | 67,94 % |
| 2026-08-22 00:06:42 | 23,42 °C | 67,90 % |
| 2026-08-22 00:07:42 | 23,42 °C | 67,90 % |
| 2026-08-22 00:08:42 | 23,40 °C | 67,90 % |
| 2026-08-22 00:09:42 | 23,39 °C | 67,91 % |
| 2026-08-22 00:10:44 | 23,41 °C | 67,95 % |
| 2026-08-22 00:11:42 | 23,39 °C | 67,94 % |
| 2026-08-22 00:12:42 | 23,39 °C | 67,91 % |
| 2026-08-22 00:13:42 | 23,40 °C | 67,96 % |
| 2026-08-22 00:14:42 | 23,40 °C | 67,97 % |
| 2026-08-22 00:15:42 | 23,39 °C | 67,94 % |
| 2026-08-22 00:16:42 | 23,39 °C | 67,98 % |
| 2026-08-22 00:17:42 | 23,41 °C | 67,91 % |
| 2026-08-22 00:18:42 | 23,38 °C | 67,89 % |
| 2026-08-22 00:19:42 | 23,34 °C | 67,89 % |
| 2026-08-22 00:20:42 | 23,36 °C | 67,89 % |
| 2026-08-22 00:21:42 | 23,34 °C | 67,84 % |
| 2026-08-22 00:22:42 | 23,33 °C | 67,88 % |
| 2026-08-22 00:23:42 | 23,32 °C | 67,91 % |
| 2026-08-22 00:24:42 | 23,30 °C | 67,91 % |
| 2026-08-22 00:25:43 | 23,30 °C | 67,85 % |
| 2026-08-22 00:26:42 | 23,30 °C | 67,87 % |
| 2026-08-22 00:27:42 | 23,28 °C | 67,87 % |
| 2026-08-22 00:28:42 | 23,27 °C | 67,86 % |
| 2026-08-22 00:29:42 | 23,25 °C | 67,83 % |
| 2026-08-22 00:30:42 | 23,24 °C | 67,86 % |
| 2026-08-22 00:31:42 | 23,23 °C | 67,88 % |
| 2026-08-22 00:32:42 | 23,23 °C | 67,87 % |
| 2026-08-22 00:33:42 | 23,23 °C | 67,87 % |
| 2026-08-22 00:34:42 | 23,20 °C | 67,88 % |
| 2026-08-22 00:35:42 | 23,19 °C | 67,88 % |
| 2026-08-22 00:36:42 | 23,19 °C | 67,89 % |
| 2026-08-22 00:37:42 | 23,17 °C | 67,88 % |
| 2026-08-22 00:38:42 | 23,14 °C | 67,89 % |
| 2026-08-22 00:39:45 | 23,13 °C | 67,91 % |
| 2026-08-22 00:40:42 | 23,14 °C | 67,91 % |
| 2026-08-22 00:41:42 | 23,14 °C | 67,94 % |
| 2026-08-22 00:42:42 | 23,12 °C | 67,91 % |
| 2026-08-22 00:43:42 | 23,11 °C | 67,92 % |
| 2026-08-22 00:44:42 | 23,07 °C | 67,95 % |
| 2026-08-22 00:45:42 | 23,09 °C | 67,94 % |
| 2026-08-22 00:46:42 | 23,07 °C | 67,92 % |
| 2026-08-22 00:47:42 | 23,07 °C | 67,92 % |
| 2026-08-22 00:48:42 | 23,05 °C | 67,90 % |
| 2026-08-22 00:49:42 | 23,06 °C | 67,90 % |
| 2026-08-22 00:50:42 | 23,05 °C | 67,91 % |
| 2026-08-22 00:51:42 | 23,04 °C | 67,90 % |
| 2026-08-22 00:52:43 | 23,03 °C | 67,90 % |
| 2026-08-22 00:53:46 | 23,00 °C | 67,89 % |
| 2026-08-22 00:54:42 | 23,01 °C | 67,91 % |
| 2026-08-22 00:55:42 | 23,01 °C | 67,90 % |
| 2026-08-22 00:56:42 | 23,00 °C | 67,89 % |
| 2026-08-22 00:57:42 | 22,98 °C | 67,90 % |
| 2026-08-22 00:58:42 | 22,97 °C | 67,89 % |
| 2026-08-22 00:59:42 | 23,00 °C | 67,91 % |
| 2026-08-22 01:00:42 | 22,98 °C | 67,91 % |
| 2026-08-22 01:01:42 | 22,97 °C | 67,92 % |
| 2026-08-22 01:02:42 | 22,93 °C | 67,93 % |
| 2026-08-22 01:03:42 | 22,95 °C | 67,97 % |
| 2026-08-22 01:04:42 | 22,92 °C | 67,95 % |
| 2026-08-22 01:05:42 | 22,92 °C | 67,96 % |
| 2026-08-22 01:06:42 | 22,90 °C | 67,98 % |
| 2026-08-22 01:07:42 | 22,89 °C | 67,96 % |
| 2026-08-22 01:08:42 | 22,90 °C | 67,97 % |
| 2026-08-22 01:09:42 | 22,92 °C | 67,98 % |
| 2026-08-22 01:10:45 | 22,89 °C | 67,98 % |
| 2026-08-22 01:11:42 | 22,89 °C | 67,95 % |
| 2026-08-22 01:12:42 | 22,87 °C | 67,97 % |
| 2026-08-22 01:13:42 | 22,89 °C | 67,96 % |
| 2026-08-22 01:14:42 | 22,89 °C | 67,97 % |
| 2026-08-22 01:15:42 | 22,86 °C | 67,96 % |
| 2026-08-22 01:16:42 | 22,88 °C | 67,99 % |
| 2026-08-22 01:17:42 | 22,86 °C | 67,98 % |
| 2026-08-22 01:18:44 | 22,85 °C | 67,99 % |
| 2026-08-22 01:19:51 | 22,83 °C | 67,98 % |
| 2026-08-22 01:20:51 | 22,83 °C | 67,99 % |
| 2026-08-22 01:21:51 | 22,82 °C | 68,01 % |
| 2026-08-22 01:22:51 | 22,83 °C | 68,01 % |
| 2026-08-22 01:23:51 | 22,82 °C | 67,98 % |
| 2026-08-22 01:24:51 | 22,83 °C | 68,00 % |
| 2026-08-22 01:25:51 | 22,83 °C | 68,00 % |
| 2026-08-22 01:26:51 | 22,82 °C | 68,00 % |
| 2026-08-22 01:27:51 | 22,80 °C | 67,99 % |
| 2026-08-22 01:28:51 | 22,82 °C | 68,00 % |
| 2026-08-22 01:29:51 | 22,81 °C | 68,00 % |
| 2026-08-22 01:30:51 | 22,80 °C | 68,01 % |
| 2026-08-22 01:31:51 | 22,81 °C | 68,00 % |
| 2026-08-22 01:32:51 | 22,81 °C | 68,01 % |
| 2026-08-22 01:33:51 | 22,79 °C | 68,01 % |
| 2026-08-22 01:34:51 | 22,80 °C | 68,03 % |
| 2026-08-22 01:35:51 | 22,79 °C | 68,00 % |
| 2026-08-22 01:36:51 | 22,79 °C | 68,02 % |
| 2026-08-22 01:37:51 | 22,76 °C | 68,03 % |
| 2026-08-22 01:38:51 | 22,77 °C | 68,05 % |
| 2026-08-22 01:39:51 | 22,76 °C | 68,02 % |
| 2026-08-22 01:40:51 | 22,75 °C | 68,01 % |
| 2026-08-22 01:41:51 | 22,73 °C | 68,05 % |
| 2026-08-22 01:42:51 | 22,72 °C | 68,04 % |
| 2026-08-22 01:43:51 | 22,70 °C | 68,05 % |
| 2026-08-22 01:44:51 | 22,72 °C | 68,07 % |
| 2026-08-22 01:46:59 | 22,70 °C | 68,08 % |
| 2026-08-22 01:47:58 | 22,69 °C | 68,08 % |
| 2026-08-22 01:48:59 | 22,67 °C | 68,07 % |
| 2026-08-22 01:49:58 | 22,70 °C | 68,08 % |
| 2026-08-22 01:51:02 | 22,67 °C | 68,08 % |
| 2026-08-22 01:51:58 | 22,67 °C | 68,08 % |
| 2026-08-22 01:52:58 | 22,66 °C | 68,09 % |
| 2026-08-22 01:53:58 | 22,67 °C | 68,04 % |
| 2026-08-22 01:54:58 | 22,65 °C | 68,06 % |
| 2026-08-22 01:55:58 | 22,62 °C | 68,04 % |
| 2026-08-22 01:56:58 | 22,62 °C | 68,11 % |
| 2026-08-22 01:57:58 | 22,60 °C | 68,08 % |
| 2026-08-22 01:58:58 | 22,60 °C | 68,09 % |
| 2026-08-22 01:59:58 | 22,59 °C | 68,12 % |
| 2026-08-22 02:00:58 | 22,59 °C | 68,10 % |
| 2026-08-22 02:01:58 | 22,56 °C | 68,13 % |
| 2026-08-22 02:02:58 | 22,57 °C | 68,09 % |
| 2026-08-22 02:04:01 | 22,58 °C | 68,09 % |
| 2026-08-22 02:04:58 | 22,58 °C | 68,08 % |
| 2026-08-22 02:05:58 | 22,58 °C | 68,11 % |
| 2026-08-22 02:06:58 | 22,59 °C | 68,10 % |
| 2026-08-22 02:07:58 | 22,58 °C | 68,07 % |
| 2026-08-22 02:08:58 | 22,59 °C | 68,10 % |
| 2026-08-22 02:09:58 | 22,58 °C | 68,09 % |
| 2026-08-22 02:10:58 | 22,56 °C | 68,08 % |
| 2026-08-22 02:11:58 | 22,58 °C | 68,09 % |
| 2026-08-22 02:12:58 | 22,58 °C | 68,10 % |
| 2026-08-22 02:13:58 | 22,57 °C | 68,06 % |
| 2026-08-22 02:14:58 | 22,57 °C | 68,05 % |
| 2026-08-22 02:15:58 | 22,55 °C | 68,08 % |
| 2026-08-22 02:16:58 | 22,57 °C | 68,10 % |
| 2026-08-22 02:17:58 | 22,57 °C | 68,09 % |
| 2026-08-22 02:18:58 | 22,56 °C | 68,07 % |
| 2026-08-22 02:19:59 | 22,54 °C | 68,09 % |
| 2026-08-22 02:20:59 | 22,53 °C | 68,10 % |
| 2026-08-22 02:21:58 | 22,52 °C | 68,11 % |
| 2026-08-22 02:22:58 | 22,52 °C | 68,12 % |
| 2026-08-22 02:23:58 | 22,51 °C | 68,13 % |
| 2026-08-22 02:24:58 | 22,53 °C | 68,12 % |
| 2026-08-22 02:25:58 | 22,51 °C | 68,13 % |
| 2026-08-22 02:26:58 | 22,51 °C | 68,11 % |
| 2026-08-22 02:27:58 | 22,50 °C | 68,12 % |
| 2026-08-22 02:28:58 | 22,48 °C | 68,11 % |
| 2026-08-22 02:29:58 | 22,48 °C | 68,11 % |
| 2026-08-22 02:30:58 | 22,48 °C | 68,09 % |
| 2026-08-22 02:31:58 | 22,50 °C | 68,12 % |
| 2026-08-22 02:32:58 | 22,49 °C | 68,12 % |
| 2026-08-22 02:33:58 | 22,49 °C | 68,07 % |
| 2026-08-22 02:34:59 | 22,48 °C | 68,09 % |
| 2026-08-22 02:35:59 | 22,49 °C | 68,11 % |
| 2026-08-22 02:36:58 | 22,48 °C | 68,09 % |
| 2026-08-22 02:37:58 | 22,48 °C | 68,10 % |
| 2026-08-22 02:38:58 | 22,48 °C | 68,11 % |
| 2026-08-22 02:39:58 | 22,46 °C | 68,10 % |
| 2026-08-22 02:40:58 | 22,44 °C | 68,10 % |
| 2026-08-22 02:41:58 | 22,45 °C | 68,09 % |
| 2026-08-22 02:42:58 | 22,46 °C | 68,15 % |
| 2026-08-22 02:43:58 | 22,43 °C | 68,11 % |
| 2026-08-22 02:44:58 | 22,45 °C | 68,12 % |
| 2026-08-22 02:45:58 | 22,43 °C | 68,11 % |
| 2026-08-22 02:47:01 | 22,44 °C | 68,13 % |
| 2026-08-22 02:47:58 | 22,40 °C | 68,12 % |
| 2026-08-22 02:48:58 | 22,41 °C | 68,12 % |
| 2026-08-22 02:49:58 | 22,42 °C | 68,13 % |
| 2026-08-22 02:50:58 | 22,43 °C | 68,15 % |
| 2026-08-22 02:51:58 | 22,41 °C | 68,16 % |
| 2026-08-22 02:52:58 | 22,42 °C | 68,16 % |
| 2026-08-22 02:53:58 | 22,41 °C | 68,16 % |
| 2026-08-22 02:54:58 | 22,40 °C | 68,16 % |
| 2026-08-22 02:55:58 | 22,38 °C | 68,16 % |
| 2026-08-22 02:56:58 | 22,40 °C | 68,14 % |
| 2026-08-22 02:57:58 | 22,41 °C | 68,16 % |
| 2026-08-22 02:59:01 | 22,39 °C | 68,14 % |
| 2026-08-22 02:59:58 | 22,38 °C | 68,13 % |
| 2026-08-22 03:01:58 | 22,37 °C | 68,15 % |
| 2026-08-22 03:02:58 | 22,39 °C | 68,14 % |
| 2026-08-22 03:03:58 | 22,39 °C | 68,15 % |
| 2026-08-22 03:04:58 | 22,37 °C | 68,15 % |
| 2026-08-22 03:05:58 | 22,36 °C | 68,14 % |
| 2026-08-22 03:06:58 | 22,37 °C | 68,13 % |
| 2026-08-22 03:07:58 | 22,38 °C | 68,18 % |
| 2026-08-22 03:08:58 | 22,35 °C | 68,18 % |
| 2026-08-22 03:09:58 | 22,35 °C | 68,17 % |
| 2026-08-22 03:10:58 | 22,32 °C | 68,16 % |
| 2026-08-22 03:11:59 | 22,34 °C | 68,17 % |
| 2026-08-22 03:12:58 | 22,31 °C | 68,18 % |
| 2026-08-22 03:13:58 | 22,32 °C | 68,19 % |
| 2026-08-22 03:14:58 | 22,32 °C | 68,18 % |
| 2026-08-22 03:15:58 | 22,31 °C | 68,20 % |
| 2026-08-22 03:16:58 | 22,31 °C | 68,20 % |
| 2026-08-22 03:17:58 | 22,32 °C | 68,21 % |
| 2026-08-22 03:18:58 | 22,31 °C | 68,16 % |
| 2026-08-22 03:19:58 | 22,32 °C | 68,17 % |
| 2026-08-22 03:20:58 | 22,34 °C | 68,20 % |
| 2026-08-22 03:21:58 | 22,35 °C | 68,19 % |
| 2026-08-22 03:22:58 | 22,34 °C | 68,17 % |
| 2026-08-22 03:23:58 | 22,35 °C | 68,19 % |
| 2026-08-22 03:24:58 | 22,32 °C | 68,20 % |
| 2026-08-22 03:26:01 | 22,34 °C | 68,16 % |
| 2026-08-22 03:26:58 | 22,37 °C | 68,19 % |
| 2026-08-22 03:27:58 | 22,36 °C | 68,19 % |
| 2026-08-22 03:28:58 | 22,37 °C | 68,19 % |
| 2026-08-22 03:29:58 | 22,37 °C | 68,20 % |
| 2026-08-22 03:30:58 | 22,36 °C | 68,20 % |
| 2026-08-22 03:31:58 | 22,37 °C | 68,22 % |
| 2026-08-22 03:32:58 | 22,38 °C | 68,20 % |
| 2026-08-22 03:33:58 | 22,38 °C | 68,20 % |
| 2026-08-22 03:34:58 | 22,40 °C | 68,22 % |
| 2026-08-22 03:35:58 | 22,38 °C | 68,22 % |
| 2026-08-22 03:36:58 | 22,37 °C | 68,22 % |
| 2026-08-22 03:37:58 | 22,40 °C | 68,22 % |
| 2026-08-22 03:38:58 | 22,42 °C | 68,22 % |
| 2026-08-22 03:39:58 | 22,40 °C | 68,20 % |
| 2026-08-22 03:40:58 | 22,40 °C | 68,22 % |
| 2026-08-22 03:41:58 | 22,43 °C | 68,22 % |
| 2026-08-22 03:42:58 | 22,42 °C | 68,23 % |
| 2026-08-22 03:43:58 | 22,42 °C | 68,23 % |
| 2026-08-22 03:44:58 | 22,43 °C | 68,25 % |
| 2026-08-22 03:45:58 | 22,43 °C | 68,26 % |
| 2026-08-22 03:46:58 | 22,44 °C | 68,24 % |
| 2026-08-22 03:47:58 | 22,43 °C | 68,23 % |
| 2026-08-22 03:48:58 | 22,43 °C | 68,25 % |
| 2026-08-22 03:49:58 | 22,44 °C | 68,26 % |
| 2026-08-22 03:50:58 | 22,43 °C | 68,26 % |
| 2026-08-22 03:51:59 | 22,42 °C | 68,28 % |
| 2026-08-22 03:52:59 | 22,42 °C | 68,26 % |
| 2026-08-22 03:54:02 | 22,40 °C | 68,30 % |
| 2026-08-22 03:55:01 | 22,39 °C | 68,32 % |
| 2026-08-22 03:55:58 | 22,38 °C | 68,28 % |
| 2026-08-22 03:56:58 | 22,38 °C | 68,29 % |
| 2026-08-22 03:57:58 | 22,37 °C | 68,33 % |
| 2026-08-22 03:58:58 | 22,38 °C | 68,31 % |
| 2026-08-22 03:59:58 | 22,37 °C | 68,32 % |
| 2026-08-22 04:00:58 | 22,33 °C | 68,31 % |
| 2026-08-22 04:01:58 | 22,34 °C | 68,32 % |
| 2026-08-22 04:02:58 | 22,33 °C | 68,33 % |
| 2026-08-22 04:03:58 | 22,33 °C | 68,35 % |
| 2026-08-22 04:04:58 | 22,32 °C | 68,36 % |
| 2026-08-22 04:05:58 | 22,34 °C | 68,34 % |
| 2026-08-22 04:06:58 | 22,35 °C | 68,33 % |
| 2026-08-22 04:07:58 | 22,33 °C | 68,32 % |
| 2026-08-22 04:08:58 | 22,31 °C | 68,32 % |
| 2026-08-22 04:09:58 | 22,31 °C | 68,34 % |
| 2026-08-22 04:10:58 | 22,31 °C | 68,37 % |
| 2026-08-22 04:11:58 | 22,30 °C | 68,35 % |
| 2026-08-22 04:12:58 | 22,29 °C | 68,36 % |
| 2026-08-22 04:13:58 | 22,30 °C | 68,36 % |
| 2026-08-22 04:14:58 | 22,31 °C | 68,37 % |
| 2026-08-22 04:15:58 | 22,30 °C | 68,36 % |
| 2026-08-22 04:16:58 | 22,28 °C | 68,36 % |
| 2026-08-22 04:17:58 | 22,27 °C | 68,36 % |
| 2026-08-22 04:18:58 | 22,29 °C | 68,34 % |
| 2026-08-22 04:19:58 | 22,25 °C | 68,31 % |
| 2026-08-22 04:20:58 | 22,28 °C | 68,36 % |
| 2026-08-22 04:21:58 | 22,26 °C | 68,35 % |
| 2026-08-22 04:22:58 | 22,24 °C | 68,37 % |
| 2026-08-22 04:23:58 | 22,22 °C | 68,35 % |
| 2026-08-22 04:25:03 | 22,24 °C | 68,36 % |
| 2026-08-22 04:25:58 | 22,22 °C | 68,35 % |
| 2026-08-22 04:27:00 | 22,22 °C | 68,36 % |
| 2026-08-22 04:27:58 | 22,20 °C | 68,32 % |
| 2026-08-22 04:29:00 | 22,19 °C | 68,39 % |
| 2026-08-22 04:29:58 | 22,17 °C | 68,38 % |
| 2026-08-22 04:30:58 | 22,17 °C | 68,39 % |
| 2026-08-22 04:31:58 | 22,17 °C | 68,37 % |
| 2026-08-22 04:32:58 | 22,15 °C | 68,37 % |
| 2026-08-22 04:33:58 | 22,13 °C | 68,38 % |
| 2026-08-22 04:34:58 | 22,17 °C | 68,38 % |
| 2026-08-22 04:35:58 | 22,16 °C | 68,40 % |
| 2026-08-22 04:36:58 | 22,15 °C | 68,39 % |
| 2026-08-22 04:37:58 | 22,15 °C | 68,35 % |
| 2026-08-22 04:38:58 | 22,14 °C | 68,36 % |
| 2026-08-22 04:39:58 | 22,16 °C | 68,38 % |
| 2026-08-22 04:40:58 | 22,13 °C | 68,36 % |
| 2026-08-22 04:41:58 | 22,13 °C | 68,36 % |
| 2026-08-22 04:42:58 | 22,13 °C | 68,37 % |
| 2026-08-22 04:43:58 | 22,14 °C | 68,35 % |
| 2026-08-22 04:44:58 | 22,12 °C | 68,37 % |
| 2026-08-22 04:45:58 | 22,14 °C | 68,35 % |
| 2026-08-22 04:46:58 | 22,13 °C | 68,35 % |
| 2026-08-22 04:47:58 | 22,12 °C | 68,34 % |
| 2026-08-22 04:48:58 | 22,15 °C | 68,35 % |
| 2026-08-22 04:49:58 | 22,13 °C | 68,33 % |
| 2026-08-22 04:50:58 | 22,09 °C | 68,32 % |
| 2026-08-22 04:51:58 | 22,14 °C | 68,34 % |
| 2026-08-22 04:52:58 | 22,09 °C | 68,31 % |
| 2026-08-22 04:53:58 | 22,09 °C | 68,31 % |
| 2026-08-22 04:54:59 | 22,11 °C | 68,33 % |
| 2026-08-22 04:55:59 | 22,11 °C | 68,34 % |
| 2026-08-22 04:56:59 | 22,10 °C | 68,32 % |
| 2026-08-22 04:57:58 | 22,11 °C | 68,32 % |
| 2026-08-22 04:58:59 | 22,08 °C | 68,32 % |
| 2026-08-22 04:59:58 | 22,08 °C | 68,32 % |
| 2026-08-22 05:00:58 | 22,08 °C | 68,32 % |
| 2026-08-22 05:01:58 | 22,07 °C | 68,33 % |
| 2026-08-22 05:02:58 | 22,07 °C | 68,34 % |
| 2026-08-22 05:03:58 | 22,07 °C | 68,36 % |
| 2026-08-22 05:04:58 | 22,06 °C | 68,33 % |
| 2026-08-22 05:05:58 | 22,05 °C | 68,34 % |
| 2026-08-22 05:06:58 | 22,07 °C | 68,34 % |
| 2026-08-22 05:07:58 | 22,03 °C | 68,33 % |
| 2026-08-22 05:08:58 | 22,04 °C | 68,34 % |
| 2026-08-22 05:09:58 | 22,05 °C | 68,34 % |
| 2026-08-22 05:10:59 | 22,04 °C | 68,34 % |
| 2026-08-22 05:11:58 | 22,05 °C | 68,32 % |
| 2026-08-22 05:12:58 | 22,05 °C | 68,34 % |
| 2026-08-22 05:13:58 | 22,04 °C | 68,31 % |
| 2026-08-22 05:14:58 | 22,02 °C | 68,33 % |
| 2026-08-22 05:15:58 | 22,06 °C | 68,35 % |
| 2026-08-22 05:16:58 | 22,02 °C | 68,34 % |
| 2026-08-22 05:18:01 | 22,04 °C | 68,35 % |
| 2026-08-22 05:18:58 | 22,03 °C | 68,34 % |
| 2026-08-22 05:19:58 | 22,03 °C | 68,36 % |
| 2026-08-22 05:21:02 | 22,04 °C | 68,37 % |
| 2026-08-22 05:22:06 | 22,03 °C | 68,35 % |
| 2026-08-22 05:23:04 | 22,03 °C | 68,34 % |
| 2026-08-22 05:24:04 | 22,04 °C | 68,35 % |
| 2026-08-22 05:25:04 | 22,05 °C | 68,37 % |
| 2026-08-22 05:26:04 | 22,03 °C | 68,36 % |
| 2026-08-22 05:27:04 | 22,03 °C | 68,37 % |
| 2026-08-22 05:28:04 | 22,04 °C | 68,35 % |
| 2026-08-22 05:29:04 | 22,04 °C | 68,36 % |
| 2026-08-22 05:30:04 | 22,04 °C | 68,36 % |
| 2026-08-22 05:31:04 | 22,05 °C | 68,36 % |
| 2026-08-22 05:32:04 | 22,04 °C | 68,33 % |
| 2026-08-22 05:33:04 | 22,05 °C | 68,33 % |
| 2026-08-22 05:34:05 | 22,06 °C | 68,33 % |
| 2026-08-22 05:35:04 | 22,06 °C | 68,32 % |
| 2026-08-22 05:36:04 | 22,07 °C | 68,32 % |
| 2026-08-22 05:37:04 | 22,05 °C | 68,35 % |
| 2026-08-22 05:38:04 | 22,09 °C | 68,31 % |
| 2026-08-22 05:39:04 | 22,06 °C | 68,32 % |
| 2026-08-22 05:40:04 | 22,08 °C | 68,30 % |
| 2026-08-22 05:41:04 | 22,09 °C | 68,30 % |
| 2026-08-22 05:42:04 | 22,09 °C | 68,32 % |
| 2026-08-22 05:43:04 | 22,08 °C | 68,31 % |
| 2026-08-22 05:44:04 | 22,10 °C | 68,35 % |
| 2026-08-22 05:45:04 | 22,09 °C | 68,35 % |
| 2026-08-22 05:46:04 | 22,12 °C | 68,35 % |
| 2026-08-22 05:47:04 | 22,10 °C | 68,34 % |
| 2026-08-22 05:48:05 | 22,11 °C | 68,33 % |
| 2026-08-22 05:49:08 | 22,11 °C | 68,33 % |
| 2026-08-22 05:50:04 | 22,10 °C | 68,33 % |
| 2026-08-22 05:51:04 | 22,10 °C | 68,34 % |
| 2026-08-22 05:52:04 | 22,12 °C | 68,37 % |
| 2026-08-22 05:53:04 | 22,11 °C | 68,37 % |
| 2026-08-22 05:54:04 | 22,12 °C | 68,34 % |
| 2026-08-22 05:55:04 | 22,12 °C | 68,38 % |
| 2026-08-22 05:56:04 | 22,12 °C | 68,38 % |
| 2026-08-22 05:57:04 | 22,13 °C | 68,39 % |
| 2026-08-22 05:58:04 | 22,14 °C | 68,39 % |
| 2026-08-22 05:59:04 | 22,13 °C | 68,38 % |
| 2026-08-22 06:00:05 | 22,13 °C | 68,37 % |
| 2026-08-22 06:01:04 | 22,16 °C | 68,38 % |
| 2026-08-22 06:02:04 | 22,16 °C | 68,39 % |
| 2026-08-22 06:03:04 | 22,15 °C | 68,36 % |
| 2026-08-22 06:04:04 | 22,13 °C | 68,35 % |
| 2026-08-22 06:05:04 | 22,16 °C | 68,38 % |
| 2026-08-22 06:06:04 | 22,13 °C | 68,38 % |
| 2026-08-22 06:07:04 | 22,17 °C | 68,39 % |
| 2026-08-22 06:08:04 | 22,15 °C | 68,38 % |
| 2026-08-22 06:09:04 | 22,16 °C | 68,36 % |
| 2026-08-22 06:10:04 | 22,16 °C | 68,39 % |
| 2026-08-22 06:11:04 | 22,14 °C | 68,38 % |
| 2026-08-22 06:12:04 | 22,17 °C | 68,36 % |
| 2026-08-22 06:13:04 | 22,16 °C | 68,40 % |
| 2026-08-22 06:14:04 | 22,13 °C | 68,40 % |
| 2026-08-22 06:15:04 | 22,15 °C | 68,41 % |
| 2026-08-22 06:16:04 | 22,17 °C | 68,42 % |
| 2026-08-22 06:17:05 | 22,17 °C | 68,42 % |
| 2026-08-22 06:18:04 | 22,18 °C | 68,42 % |
| 2026-08-22 06:19:04 | 22,16 °C | 68,44 % |
| 2026-08-22 06:20:04 | 22,17 °C | 68,44 % |
| 2026-08-22 06:21:04 | 22,17 °C | 68,45 % |
| 2026-08-22 06:22:04 | 22,17 °C | 68,43 % |
| 2026-08-22 06:23:04 | 22,17 °C | 68,44 % |
| 2026-08-22 06:24:04 | 22,17 °C | 68,47 % |
| 2026-08-22 06:25:04 | 22,17 °C | 68,45 % |
| 2026-08-22 06:26:04 | 22,16 °C | 68,48 % |
| 2026-08-22 06:27:04 | 22,17 °C | 68,46 % |
| 2026-08-22 06:28:04 | 22,16 °C | 68,46 % |
| 2026-08-22 06:29:04 | 22,16 °C | 68,45 % |
| 2026-08-22 06:30:05 | 22,17 °C | 68,46 % |
| 2026-08-22 06:31:04 | 22,16 °C | 68,48 % |
| 2026-08-22 06:32:04 | 22,16 °C | 68,50 % |
| 2026-08-22 06:33:04 | 22,17 °C | 68,50 % |
| 2026-08-22 06:34:04 | 22,17 °C | 68,48 % |
| 2026-08-22 06:35:04 | 22,17 °C | 68,52 % |
| 2026-08-22 06:36:04 | 22,17 °C | 68,51 % |
| 2026-08-22 06:37:04 | 22,18 °C | 68,48 % |
| 2026-08-22 06:38:04 | 22,19 °C | 68,53 % |
| 2026-08-22 06:39:04 | 22,19 °C | 68,53 % |
| 2026-08-22 06:40:04 | 22,19 °C | 68,53 % |
| 2026-08-22 06:41:04 | 22,17 °C | 68,50 % |
| 2026-08-22 06:42:04 | 22,19 °C | 68,53 % |
| 2026-08-22 06:43:04 | 22,17 °C | 68,49 % |
| 2026-08-22 06:44:05 | 22,19 °C | 68,52 % |
| 2026-08-22 06:45:08 | 22,18 °C | 68,52 % |
| 2026-08-22 06:46:04 | 22,19 °C | 68,53 % |
| 2026-08-22 06:47:07 | 22,17 °C | 68,53 % |
| 2026-08-22 06:48:04 | 22,18 °C | 68,56 % |
| 2026-08-22 06:49:05 | 22,20 °C | 68,54 % |
| 2026-08-22 06:50:04 | 22,20 °C | 68,55 % |
| 2026-08-22 06:51:04 | 22,20 °C | 68,56 % |
| 2026-08-22 06:52:04 | 22,22 °C | 68,55 % |
| 2026-08-22 06:53:04 | 22,17 °C | 68,54 % |
| 2026-08-22 06:54:04 | 22,20 °C | 68,54 % |
| 2026-08-22 06:55:04 | 22,21 °C | 68,55 % |
| 2026-08-22 06:56:04 | 22,17 °C | 68,55 % |
| 2026-08-22 06:57:04 | 22,21 °C | 68,57 % |
| 2026-08-22 06:58:04 | 22,21 °C | 68,57 % |
| 2026-08-22 06:59:04 | 22,19 °C | 68,55 % |
| 2026-08-22 07:00:04 | 22,20 °C | 68,57 % |
| 2026-08-22 07:01:04 | 22,18 °C | 68,55 % |
| 2026-08-22 07:02:04 | 22,19 °C | 68,60 % |
| 2026-08-22 07:03:04 | 22,20 °C | 68,57 % |
| 2026-08-22 07:04:04 | 22,19 °C | 68,57 % |
| 2026-08-22 07:05:04 | 22,19 °C | 68,60 % |
| 2026-08-22 07:06:04 | 22,19 °C | 68,57 % |
| 2026-08-22 07:07:04 | 22,20 °C | 68,58 % |
| 2026-08-22 07:08:04 | 22,18 °C | 68,58 % |
| 2026-08-22 07:09:04 | 22,19 °C | 68,61 % |
| 2026-08-22 07:10:04 | 22,19 °C | 68,62 % |
| 2026-08-22 07:11:04 | 22,19 °C | 68,64 % |
| 2026-08-22 07:12:04 | 22,19 °C | 68,63 % |
| 2026-08-22 07:13:04 | 22,21 °C | 68,64 % |
| 2026-08-22 07:14:05 | 22,19 °C | 68,62 % |
| 2026-08-22 07:15:04 | 22,19 °C | 68,62 % |
| 2026-08-22 07:16:04 | 22,20 °C | 68,64 % |
| 2026-08-22 07:17:04 | 22,21 °C | 68,62 % |
| 2026-08-22 07:18:04 | 22,20 °C | 68,62 % |
| 2026-08-22 07:19:04 | 22,18 °C | 68,59 % |
| 2026-08-22 07:20:04 | 22,20 °C | 68,61 % |
| 2026-08-22 07:21:04 | 22,19 °C | 68,57 % |
| 2026-08-22 07:22:04 | 22,20 °C | 68,60 % |
| 2026-08-22 07:23:04 | 22,19 °C | 68,60 % |
| 2026-08-22 07:24:04 | 22,19 °C | 68,60 % |
| 2026-08-22 07:25:04 | 22,19 °C | 68,61 % |
| 2026-08-22 07:26:05 | 22,21 °C | 68,64 % |
| 2026-08-22 07:27:04 | 22,21 °C | 68,60 % |
| 2026-08-22 07:28:04 | 22,19 °C | 68,61 % |
| 2026-08-22 07:29:04 | 22,18 °C | 68,60 % |
| 2026-08-22 07:30:04 | 22,20 °C | 68,62 % |
| 2026-08-22 07:31:04 | 22,18 °C | 68,62 % |
| 2026-08-22 07:32:04 | 22,19 °C | 68,66 % |
| 2026-08-22 07:33:04 | 22,20 °C | 68,65 % |
| 2026-08-22 07:34:04 | 22,19 °C | 68,63 % |
| 2026-08-22 07:35:04 | 22,17 °C | 68,64 % |
| 2026-08-22 07:36:04 | 22,17 °C | 68,65 % |
| 2026-08-22 07:37:04 | 22,18 °C | 68,65 % |
| 2026-08-22 07:38:04 | 22,18 °C | 68,66 % |
| 2026-08-22 07:39:04 | 22,20 °C | 68,66 % |
| 2026-08-22 07:41:12 | 22,19 °C | 68,69 % |
| 2026-08-22 07:42:12 | 22,17 °C | 68,69 % |
| 2026-08-22 07:43:14 | 22,19 °C | 68,68 % |
| 2026-08-22 07:44:12 | 22,21 °C | 68,68 % |
| 2026-08-22 07:45:13 | 22,19 °C | 68,67 % |
| 2026-08-22 07:46:12 | 22,20 °C | 68,67 % |
| 2026-08-22 07:47:12 | 22,20 °C | 68,64 % |
| 2026-08-22 07:48:12 | 22,19 °C | 68,68 % |
| 2026-08-22 07:49:12 | 22,19 °C | 68,68 % |
| 2026-08-22 07:50:12 | 22,19 °C | 68,69 % |
| 2026-08-22 07:51:12 | 22,20 °C | 68,65 % |
| 2026-08-22 07:52:12 | 22,20 °C | 68,68 % |
| 2026-08-22 07:53:12 | 22,19 °C | 68,68 % |
| 2026-08-22 07:54:12 | 22,21 °C | 68,68 % |
| 2026-08-22 07:55:12 | 22,19 °C | 68,67 % |
| 2026-08-22 07:56:12 | 22,20 °C | 68,71 % |
| 2026-08-22 07:57:12 | 22,21 °C | 68,68 % |
| 2026-08-22 07:58:12 | 22,18 °C | 68,69 % |
| 2026-08-22 07:59:12 | 22,21 °C | 68,71 % |
| 2026-08-22 08:00:12 | 22,22 °C | 68,72 % |
| 2026-08-22 08:01:12 | 22,21 °C | 68,71 % |
| 2026-08-22 08:02:12 | 22,21 °C | 68,72 % |
| 2026-08-22 08:03:12 | 22,23 °C | 68,70 % |
| 2026-08-22 08:04:12 | 22,22 °C | 68,70 % |
| 2026-08-22 08:05:12 | 22,22 °C | 68,70 % |
| 2026-08-22 08:06:12 | 22,22 °C | 68,64 % |
| 2026-08-22 08:07:12 | 22,21 °C | 68,59 % |
| 2026-08-22 08:08:12 | 22,22 °C | 68,61 % |
| 2026-08-22 08:09:12 | 22,23 °C | 68,59 % |
| 2026-08-22 08:10:12 | 22,23 °C | 68,58 % |
| 2026-08-22 08:11:12 | 22,25 °C | 68,55 % |
| 2026-08-22 08:12:12 | 22,26 °C | 68,57 % |
| 2026-08-22 08:13:12 | 22,25 °C | 68,56 % |
| 2026-08-22 08:14:12 | 22,27 °C | 68,59 % |
| 2026-08-22 08:15:12 | 22,25 °C | 68,55 % |
| 2026-08-22 08:16:12 | 22,27 °C | 68,58 % |
| 2026-08-22 08:17:12 | 22,25 °C | 68,57 % |
| 2026-08-22 08:18:12 | 22,27 °C | 68,58 % |
| 2026-08-22 08:19:12 | 22,28 °C | 68,56 % |
| 2026-08-22 08:20:12 | 22,27 °C | 68,56 % |
| 2026-08-22 08:21:12 | 22,27 °C | 68,59 % |
| 2026-08-22 08:22:12 | 22,26 °C | 68,59 % |
| 2026-08-22 08:23:13 | 22,30 °C | 68,59 % |
| 2026-08-22 08:24:12 | 22,28 °C | 68,59 % |
| 2026-08-22 08:25:12 | 22,31 °C | 68,56 % |
| 2026-08-22 08:26:12 | 22,29 °C | 68,57 % |
| 2026-08-22 08:27:12 | 22,29 °C | 68,57 % |
| 2026-08-22 08:28:12 | 22,30 °C | 68,58 % |
| 2026-08-22 08:29:12 | 22,29 °C | 68,53 % |
| 2026-08-22 08:30:12 | 22,31 °C | 68,56 % |
| 2026-08-22 08:31:12 | 22,32 °C | 68,53 % |
| 2026-08-22 08:32:12 | 22,32 °C | 68,56 % |
| 2026-08-22 08:33:12 | 22,30 °C | 68,52 % |
| 2026-08-22 08:34:12 | 22,32 °C | 68,53 % |
| 2026-08-22 08:35:12 | 22,31 °C | 68,55 % |
| 2026-08-22 08:36:12 | 22,33 °C | 68,53 % |
| 2026-08-22 08:37:12 | 22,32 °C | 68,52 % |
| 2026-08-22 08:38:12 | 22,32 °C | 68,52 % |
| 2026-08-22 08:39:12 | 22,32 °C | 68,53 % |
| 2026-08-22 08:40:12 | 22,33 °C | 68,47 % |
| 2026-08-22 08:41:12 | 22,32 °C | 68,46 % |
| 2026-08-22 08:42:12 | 22,31 °C | 68,43 % |
| 2026-08-22 08:43:12 | 22,31 °C | 68,46 % |
| 2026-08-22 08:44:12 | 22,31 °C | 68,42 % |
| 2026-08-22 08:45:12 | 22,32 °C | 68,43 % |
| 2026-08-22 08:46:12 | 22,34 °C | 68,43 % |
| 2026-08-22 08:47:13 | 22,34 °C | 68,44 % |
| 2026-08-22 08:48:13 | 22,34 °C | 68,39 % |
| 2026-08-22 08:49:12 | 22,36 °C | 68,38 % |
| 2026-08-22 08:50:12 | 22,38 °C | 68,35 % |
| 2026-08-22 08:51:12 | 22,39 °C | 68,33 % |
| 2026-08-22 08:52:12 | 22,37 °C | 68,34 % |
| 2026-08-22 08:53:12 | 22,38 °C | 68,30 % |
| 2026-08-22 08:54:12 | 22,40 °C | 68,28 % |
| 2026-08-22 08:55:12 | 22,37 °C | 68,24 % |
| 2026-08-22 08:56:12 | 22,41 °C | 68,28 % |
| 2026-08-22 08:57:12 | 22,40 °C | 68,27 % |
| 2026-08-22 08:58:12 | 22,42 °C | 68,25 % |
| 2026-08-22 08:59:12 | 22,39 °C | 68,23 % |
| 2026-08-22 09:00:12 | 22,42 °C | 68,21 % |
| 2026-08-22 09:01:12 | 22,42 °C | 68,24 % |
| 2026-08-22 09:02:12 | 22,42 °C | 68,22 % |
| 2026-08-22 09:03:12 | 22,43 °C | 68,20 % |
| 2026-08-22 09:04:12 | 22,43 °C | 68,16 % |
| 2026-08-22 09:05:12 | 22,44 °C | 68,15 % |
| 2026-08-22 09:06:12 | 22,44 °C | 68,16 % |
| 2026-08-22 09:07:12 | 22,44 °C | 68,14 % |
| 2026-08-22 09:08:12 | 22,43 °C | 68,12 % |
| 2026-08-22 09:09:12 | 22,43 °C | 68,09 % |
| 2026-08-22 09:10:12 | 22,44 °C | 68,12 % |
| 2026-08-22 09:11:12 | 22,43 °C | 68,08 % |
| 2026-08-22 09:12:12 | 22,44 °C | 68,09 % |
| 2026-08-22 09:13:12 | 22,42 °C | 68,09 % |
| 2026-08-22 09:14:12 | 22,43 °C | 68,09 % |
| 2026-08-22 09:15:12 | 22,47 °C | 68,10 % |
| 2026-08-22 09:16:12 | 22,46 °C | 68,08 % |
| 2026-08-22 09:17:12 | 22,45 °C | 68,08 % |
| 2026-08-22 09:18:12 | 22,48 °C | 68,04 % |
| 2026-08-22 09:19:12 | 22,46 °C | 68,03 % |
| 2026-08-22 09:20:12 | 22,47 °C | 67,99 % |
| 2026-08-22 09:21:12 | 22,46 °C | 67,97 % |
| 2026-08-22 09:22:12 | 22,46 °C | 67,98 % |
| 2026-08-22 09:23:12 | 22,45 °C | 67,98 % |
| 2026-08-22 09:24:16 | 22,48 °C | 67,93 % |
| 2026-08-22 09:25:12 | 22,47 °C | 67,95 % |
| 2026-08-22 09:26:12 | 22,48 °C | 67,95 % |
| 2026-08-22 09:27:12 | 22,46 °C | 67,98 % |
| 2026-08-22 09:28:12 | 22,46 °C | 67,93 % |
| 2026-08-22 09:29:12 | 22,47 °C | 67,93 % |
| 2026-08-22 09:30:12 | 22,46 °C | 67,94 % |
| 2026-08-22 09:31:12 | 22,49 °C | 67,94 % |
| 2026-08-22 09:32:12 | 22,49 °C | 67,93 % |
| 2026-08-22 09:33:12 | 22,49 °C | 67,96 % |
| 2026-08-22 09:34:12 | 22,50 °C | 67,97 % |
| 2026-08-22 09:35:12 | 22,49 °C | 67,98 % |
| 2026-08-22 09:36:13 | 22,50 °C | 67,97 % |
| 2026-08-22 09:37:12 | 22,50 °C | 67,97 % |
| 2026-08-22 09:38:12 | 22,51 °C | 67,98 % |
| 2026-08-22 09:39:12 | 22,49 °C | 68,00 % |
| 2026-08-22 09:40:12 | 22,50 °C | 67,98 % |
| 2026-08-22 09:41:12 | 22,50 °C | 67,99 % |
| 2026-08-22 09:42:12 | 22,48 °C | 68,00 % |
| 2026-08-22 09:43:12 | 22,47 °C | 68,00 % |
| 2026-08-22 09:44:12 | 22,50 °C | 67,97 % |
| 2026-08-22 09:45:12 | 22,48 °C | 67,96 % |
| 2026-08-22 09:46:12 | 22,46 °C | 67,99 % |
| 2026-08-22 09:47:12 | 22,48 °C | 67,94 % |
| 2026-08-22 09:48:13 | 22,47 °C | 67,98 % |
| 2026-08-22 09:49:13 | 22,45 °C | 67,95 % |
| 2026-08-22 09:50:12 | 22,48 °C | 68,00 % |
| 2026-08-22 09:51:12 | 22,47 °C | 67,95 % |
| 2026-08-22 09:52:12 | 22,47 °C | 68,00 % |
| 2026-08-22 09:53:13 | 22,44 °C | 67,98 % |
| 2026-08-22 09:54:12 | 22,46 °C | 67,99 % |
| 2026-08-22 09:55:12 | 22,46 °C | 67,98 % |
| 2026-08-22 09:56:12 | 22,46 °C | 67,97 % |
| 2026-08-22 09:57:12 | 22,46 °C | 67,98 % |
| 2026-08-22 09:58:12 | 22,46 °C | 67,97 % |
| 2026-08-22 09:59:12 | 22,46 °C | 67,96 % |
| 2026-08-22 10:00:12 | 22,46 °C | 67,95 % |
| 2026-08-22 10:01:12 | 22,45 °C | 67,96 % |
| 2026-08-22 10:02:12 | 22,46 °C | 67,95 % |
| 2026-08-22 10:03:12 | 22,45 °C | 67,95 % |
| 2026-08-22 10:04:12 | 22,44 °C | 67,94 % |
| 2026-08-22 10:05:12 | 22,43 °C | 67,95 % |
| 2026-08-22 10:06:12 | 22,45 °C | 67,91 % |
| 2026-08-22 10:07:14 | 22,43 °C | 67,91 % |
| 2026-08-22 10:08:12 | 22,43 °C | 67,91 % |
| 2026-08-22 10:09:13 | 22,42 °C | 67,87 % |
| 2026-08-22 10:10:14 | 22,44 °C | 67,89 % |
| 2026-08-22 10:11:12 | 22,44 °C | 67,86 % |
| 2026-08-22 10:12:12 | 22,43 °C | 67,87 % |
| 2026-08-22 10:13:12 | 22,43 °C | 67,82 % |
| 2026-08-22 10:14:12 | 22,43 °C | 67,83 % |
| 2026-08-22 10:15:12 | 22,42 °C | 67,81 % |
| 2026-08-22 10:16:12 | 22,43 °C | 67,83 % |
| 2026-08-22 10:17:12 | 22,42 °C | 67,80 % |
| 2026-08-22 10:18:12 | 22,43 °C | 67,81 % |
| 2026-08-22 10:19:12 | 22,43 °C | 67,79 % |
| 2026-08-22 10:20:12 | 22,43 °C | 67,79 % |
| 2026-08-22 10:21:12 | 22,42 °C | 67,80 % |
| 2026-08-22 10:22:14 | 22,44 °C | 67,76 % |
| 2026-08-22 10:23:13 | 22,42 °C | 67,71 % |
| 2026-08-22 10:24:13 | 22,43 °C | 67,75 % |
| 2026-08-22 10:25:12 | 22,42 °C | 67,72 % |
| 2026-08-22 10:26:12 | 22,43 °C | 67,72 % |
| 2026-08-22 10:27:12 | 22,40 °C | 67,72 % |
| 2026-08-22 10:28:12 | 22,42 °C | 67,70 % |
| 2026-08-22 10:29:12 | 22,43 °C | 67,72 % |
| 2026-08-22 10:30:12 | 22,42 °C | 67,73 % |
| 2026-08-22 10:31:12 | 22,43 °C | 67,74 % |
| 2026-08-22 10:32:12 | 22,42 °C | 67,71 % |
| 2026-08-22 10:33:12 | 22,43 °C | 67,71 % |
| 2026-08-22 10:34:12 | 22,42 °C | 67,74 % |
| 2026-08-22 10:35:12 | 22,43 °C | 67,74 % |
| 2026-08-22 10:36:12 | 22,46 °C | 67,76 % |
| 2026-08-22 10:37:12 | 22,43 °C | 67,76 % |
| 2026-08-22 10:38:13 | 22,45 °C | 67,79 % |
| 2026-08-22 10:39:13 | 22,46 °C | 67,79 % |
| 2026-08-22 10:40:12 | 22,48 °C | 67,86 % |
| 2026-08-22 10:41:12 | 22,47 °C | 67,91 % |
| 2026-08-22 10:42:12 | 22,48 °C | 67,94 % |
| 2026-08-22 10:43:12 | 22,49 °C | 67,97 % |
| 2026-08-22 10:44:12 | 22,48 °C | 67,99 % |
| 2026-08-22 10:45:12 | 22,52 °C | 68,00 % |
| 2026-08-22 10:46:12 | 22,50 °C | 68,04 % |
| 2026-08-22 10:47:12 | 22,51 °C | 68,06 % |
| 2026-08-22 10:48:12 | 22,51 °C | 68,06 % |
| 2026-08-22 10:49:12 | 22,52 °C | 68,08 % |
| 2026-08-22 10:50:12 | 22,53 °C | 68,11 % |
| 2026-08-22 10:51:12 | 22,52 °C | 68,12 % |
| 2026-08-22 10:52:12 | 22,52 °C | 68,05 % |
| 2026-08-22 10:53:12 | 22,52 °C | 68,05 % |
| 2026-08-22 10:54:12 | 22,50 °C | 68,03 % |
| 2026-08-22 10:55:12 | 22,51 °C | 68,09 % |
| 2026-08-22 10:56:12 | 22,50 °C | 68,10 % |
| 2026-08-22 10:57:12 | 22,52 °C | 68,10 % |
| 2026-08-22 10:58:12 | 22,52 °C | 68,11 % |
| 2026-08-22 10:59:12 | 22,55 °C | 68,13 % |
| 2026-08-22 11:00:12 | 22,54 °C | 68,11 % |
| 2026-08-22 11:01:12 | 22,52 °C | 68,10 % |
| 2026-08-22 11:02:12 | 22,54 °C | 68,07 % |
| 2026-08-22 11:03:12 | 22,52 °C | 68,07 % |
| 2026-08-22 11:04:12 | 22,54 °C | 68,09 % |
| 2026-08-22 11:05:12 | 22,54 °C | 68,10 % |
| 2026-08-22 11:06:12 | 22,63 °C | 68,24 % |
| 2026-08-22 11:07:12 | 22,63 °C | 68,26 % |
| 2026-08-22 11:08:12 | 22,60 °C | 68,23 % |
| 2026-08-22 11:09:12 | 22,62 °C | 68,21 % |
| 2026-08-22 11:10:12 | 22,64 °C | 68,20 % |
| 2026-08-22 11:11:12 | 22,63 °C | 68,18 % |
| 2026-08-22 11:12:12 | 22,64 °C | 68,21 % |
| 2026-08-22 11:13:12 | 22,64 °C | 68,17 % |
| 2026-08-22 11:14:12 | 22,63 °C | 68,16 % |
| 2026-08-22 11:15:13 | 22,66 °C | 68,20 % |
| 2026-08-22 11:16:12 | 22,67 °C | 68,21 % |
| 2026-08-22 11:17:12 | 22,64 °C | 68,19 % |
| 2026-08-22 11:18:12 | 22,67 °C | 68,17 % |
| 2026-08-22 11:19:12 | 22,64 °C | 68,19 % |
| 2026-08-22 11:20:12 | 22,66 °C | 68,19 % |
| 2026-08-22 11:21:12 | 22,67 °C | 68,22 % |
| 2026-08-22 11:22:12 | 22,67 °C | 68,21 % |
| 2026-08-22 11:23:12 | 22,66 °C | 68,20 % |
| 2026-08-22 11:24:12 | 22,67 °C | 68,21 % |
| 2026-08-22 11:25:12 | 22,68 °C | 68,17 % |
| 2026-08-22 11:26:12 | 22,70 °C | 68,22 % |
| 2026-08-22 11:27:12 | 22,69 °C | 68,20 % |
| 2026-08-22 11:28:12 | 22,70 °C | 68,16 % |
| 2026-08-22 11:29:12 | 22,72 °C | 68,20 % |
| 2026-08-22 11:30:12 | 22,72 °C | 68,16 % |
| 2026-08-22 11:31:12 | 22,72 °C | 68,20 % |
| 2026-08-22 11:32:12 | 22,70 °C | 68,16 % |
| 2026-08-22 11:33:12 | 22,71 °C | 68,18 % |
| 2026-08-22 11:34:12 | 22,72 °C | 68,18 % |
| 2026-08-22 11:35:12 | 22,73 °C | 68,19 % |
| 2026-08-22 11:36:12 | 22,72 °C | 68,13 % |
| 2026-08-22 11:37:12 | 22,75 °C | 68,14 % |
| 2026-08-22 11:38:12 | 22,77 °C | 68,13 % |
| 2026-08-22 11:39:12 | 22,77 °C | 68,09 % |
| 2026-08-22 11:40:12 | 22,80 °C | 68,12 % |
| 2026-08-22 11:41:12 | 22,78 °C | 68,05 % |
| 2026-08-22 11:42:12 | 22,79 °C | 68,05 % |
| 2026-08-22 11:43:12 | 22,82 °C | 68,02 % |
| 2026-08-22 11:44:12 | 22,82 °C | 67,93 % |
| 2026-08-22 11:45:12 | 22,83 °C | 67,95 % |
| 2026-08-22 11:46:12 | 22,82 °C | 67,96 % |
| 2026-08-22 11:47:12 | 22,81 °C | 67,95 % |
| 2026-08-22 11:48:12 | 22,83 °C | 67,92 % |
| 2026-08-22 11:49:12 | 22,85 °C | 67,86 % |
| 2026-08-22 11:50:12 | 22,86 °C | 67,86 % |
| 2026-08-22 11:51:12 | 22,87 °C | 67,82 % |
| 2026-08-22 11:52:12 | 22,89 °C | 67,81 % |
| 2026-08-22 11:53:12 | 22,89 °C | 67,80 % |
| 2026-08-22 11:54:12 | 22,89 °C | 67,75 % |
| 2026-08-22 11:55:12 | 22,90 °C | 67,75 % |
| 2026-08-22 11:56:12 | 22,90 °C | 67,74 % |
| 2026-08-22 11:57:12 | 22,91 °C | 67,73 % |
| 2026-08-22 11:58:12 | 22,93 °C | 67,68 % |
| 2026-08-22 11:59:12 | 22,91 °C | 67,68 % |
| 2026-08-22 12:00:12 | 22,93 °C | 67,71 % |
| 2026-08-22 12:01:12 | 22,91 °C | 67,59 % |
| 2026-08-22 12:02:12 | 22,90 °C | 67,60 % |
| 2026-08-22 12:03:12 | 22,93 °C | 67,60 % |
| 2026-08-22 12:04:13 | 22,91 °C | 67,61 % |
| 2026-08-22 12:05:12 | 22,91 °C | 67,59 % |
| 2026-08-22 12:06:12 | 22,92 °C | 67,58 % |
| 2026-08-22 12:07:12 | 22,91 °C | 67,59 % |
| 2026-08-22 12:08:12 | 22,93 °C | 67,55 % |
| 2026-08-22 12:09:12 | 22,91 °C | 67,52 % |
| 2026-08-22 12:10:12 | 22,91 °C | 67,50 % |
| 2026-08-22 12:11:12 | 22,93 °C | 67,47 % |
| 2026-08-22 12:12:12 | 22,94 °C | 67,43 % |
| 2026-08-22 12:13:12 | 22,94 °C | 67,43 % |
| 2026-08-22 12:14:12 | 22,96 °C | 67,37 % |
| 2026-08-22 12:15:12 | 22,97 °C | 67,40 % |
| 2026-08-22 12:16:12 | 22,95 °C | 67,39 % |
| 2026-08-22 12:17:12 | 22,96 °C | 67,42 % |
| 2026-08-22 12:18:12 | 22,97 °C | 67,40 % |
| 2026-08-22 12:19:12 | 22,95 °C | 67,37 % |
| 2026-08-22 12:20:12 | 22,96 °C | 67,32 % |
| 2026-08-22 12:21:12 | 22,96 °C | 67,38 % |
| 2026-08-22 12:22:12 | 22,96 °C | 67,37 % |
| 2026-08-22 12:23:12 | 22,98 °C | 67,37 % |
| 2026-08-22 12:24:12 | 22,95 °C | 67,37 % |
| 2026-08-22 12:25:12 | 22,99 °C | 67,40 % |
| 2026-08-22 12:26:12 | 23,00 °C | 67,32 % |
| 2026-08-22 12:27:12 | 22,98 °C | 67,36 % |
| 2026-08-22 12:28:13 | 22,99 °C | 67,27 % |
| 2026-08-22 12:29:15 | 23,01 °C | 67,27 % |
| 2026-08-22 12:30:12 | 23,02 °C | 67,28 % |
| 2026-08-22 12:31:12 | 23,04 °C | 67,15 % |
| 2026-08-22 12:32:12 | 23,05 °C | 67,07 % |
| 2026-08-22 12:33:12 | 23,08 °C | 67,02 % |
| 2026-08-22 12:34:12 | 23,07 °C | 66,97 % |
| 2026-08-22 12:35:12 | 23,07 °C | 66,99 % |
| 2026-08-22 12:36:12 | 23,08 °C | 66,95 % |
| 2026-08-22 12:37:12 | 23,08 °C | 66,93 % |
| 2026-08-22 12:38:12 | 23,11 °C | 66,87 % |
| 2026-08-22 12:39:12 | 23,11 °C | 66,76 % |
| 2026-08-22 12:41:12 | 23,09 °C | 66,64 % |
| 2026-08-22 12:42:12 | 23,10 °C | 66,55 % |
| 2026-08-22 12:43:12 | 23,11 °C | 66,48 % |
| 2026-08-22 12:44:12 | 23,13 °C | 66,32 % |
| 2026-08-22 12:45:12 | 23,12 °C | 66,24 % |
| 2026-08-22 12:46:12 | 23,11 °C | 66,18 % |
| 2026-08-22 12:47:12 | 23,11 °C | 65,98 % |
| 2026-08-22 12:48:12 | 23,10 °C | 65,94 % |
| 2026-08-22 12:49:12 | 23,13 °C | 65,92 % |
| 2026-08-22 12:50:12 | 23,13 °C | 65,90 % |
| 2026-08-22 12:51:12 | 23,13 °C | 65,79 % |
| 2026-08-22 12:52:13 | 23,13 °C | 65,73 % |
| 2026-08-22 12:53:12 | 23,10 °C | 65,69 % |
| 2026-08-22 12:54:12 | 23,11 °C | 65,53 % |
| 2026-08-22 12:55:12 | 23,12 °C | 65,51 % |
| 2026-08-22 12:56:12 | 23,14 °C | 65,53 % |
| 2026-08-22 12:57:13 | 23,14 °C | 65,56 % |
| 2026-08-22 12:58:12 | 23,13 °C | 65,53 % |
| 2026-08-22 12:59:12 | 23,15 °C | 65,47 % |
| 2026-08-22 13:00:12 | 23,15 °C | 65,35 % |
| 2026-08-22 13:01:12 | 23,17 °C | 65,16 % |
| 2026-08-22 13:02:12 | 23,19 °C | 65,06 % |
| 2026-08-22 13:03:12 | 23,16 °C | 65,04 % |
| 2026-08-22 13:04:12 | 23,20 °C | 65,02 % |
| 2026-08-22 13:05:15 | 23,20 °C | 64,97 % |
| 2026-08-22 13:06:12 | 23,17 °C | 64,85 % |
| 2026-08-22 13:07:12 | 23,19 °C | 64,90 % |
| 2026-08-22 13:08:12 | 23,19 °C | 64,78 % |
| 2026-08-22 13:09:12 | 23,18 °C | 64,70 % |
| 2026-08-22 13:10:12 | 23,19 °C | 64,65 % |
| 2026-08-22 13:11:12 | 23,20 °C | 64,59 % |
| 2026-08-22 13:12:12 | 23,20 °C | 64,51 % |
| 2026-08-22 13:13:12 | 23,16 °C | 64,46 % |
| 2026-08-22 13:14:12 | 23,17 °C | 64,42 % |
| 2026-08-22 13:15:12 | 23,15 °C | 64,38 % |
| 2026-08-22 13:16:12 | 23,15 °C | 64,35 % |
| 2026-08-22 13:17:12 | 23,16 °C | 64,39 % |
| 2026-08-22 13:18:13 | 23,17 °C | 64,31 % |
| 2026-08-22 13:19:12 | 23,15 °C | 64,30 % |
| 2026-08-22 13:20:12 | 23,17 °C | 64,25 % |
| 2026-08-22 13:21:12 | 23,14 °C | 64,32 % |
| 2026-08-22 13:22:12 | 23,16 °C | 64,35 % |
| 2026-08-22 13:23:12 | 23,15 °C | 64,29 % |
| 2026-08-22 13:24:12 | 23,15 °C | 64,36 % |
| 2026-08-22 13:25:12 | 23,14 °C | 64,27 % |
| 2026-08-22 13:26:12 | 23,15 °C | 64,40 % |
| 2026-08-22 13:27:12 | 23,16 °C | 64,39 % |
| 2026-08-22 13:28:12 | 23,19 °C | 64,38 % |
| 2026-08-22 13:29:14 | 23,19 °C | 64,31 % |
| 2026-08-22 13:30:12 | 23,20 °C | 64,32 % |
| 2026-08-22 13:31:12 | 23,22 °C | 64,36 % |
| 2026-08-22 13:32:12 | 23,22 °C | 64,38 % |
| 2026-08-22 13:33:12 | 23,22 °C | 64,37 % |
| 2026-08-22 13:34:12 | 23,22 °C | 64,29 % |
| 2026-08-22 13:35:12 | 23,24 °C | 64,26 % |
| 2026-08-22 13:36:12 | 23,25 °C | 64,18 % |
| 2026-08-22 13:37:12 | 23,23 °C | 64,16 % |
| 2026-08-22 13:38:12 | 23,23 °C | 64,18 % |
| 2026-08-22 13:39:12 | 23,23 °C | 64,13 % |
| 2026-08-22 13:40:12 | 23,21 °C | 64,00 % |
| 2026-08-22 13:41:12 | 23,22 °C | 64,00 % |
| 2026-08-22 13:42:12 | 23,22 °C | 63,96 % |
| 2026-08-22 13:43:12 | 23,22 °C | 63,89 % |
| 2026-08-22 13:44:12 | 23,21 °C | 63,71 % |
| 2026-08-22 13:45:12 | 23,21 °C | 63,69 % |
| 2026-08-22 13:46:12 | 23,20 °C | 63,62 % |
| 2026-08-22 13:47:12 | 23,19 °C | 63,55 % |
| 2026-08-22 13:48:12 | 23,17 °C | 63,65 % |
| 2026-08-22 13:49:12 | 23,15 °C | 63,60 % |
| 2026-08-22 13:50:12 | 23,15 °C | 63,63 % |
| 2026-08-22 13:51:12 | 23,14 °C | 63,64 % |
| 2026-08-22 13:52:12 | 23,15 °C | 63,64 % |
| 2026-08-22 13:53:14 | 23,16 °C | 63,74 % |
| 2026-08-22 13:54:13 | 23,15 °C | 63,69 % |
| 2026-08-22 13:55:12 | 23,16 °C | 63,67 % |
| 2026-08-22 13:56:12 | 23,18 °C | 63,71 % |
| 2026-08-22 13:57:12 | 23,18 °C | 63,77 % |
| 2026-08-22 13:58:12 | 23,20 °C | 63,85 % |
| 2026-08-22 13:59:12 | 23,22 °C | 63,77 % |
| 2026-08-22 14:00:12 | 23,22 °C | 63,79 % |
| 2026-08-22 14:01:12 | 23,21 °C | 63,80 % |
| 2026-08-22 14:02:12 | 23,25 °C | 63,87 % |
| 2026-08-22 14:03:12 | 23,24 °C | 63,85 % |
| 2026-08-22 14:04:12 | 23,25 °C | 63,89 % |
| 2026-08-22 14:05:12 | 23,27 °C | 63,96 % |
| 2026-08-22 14:06:12 | 23,25 °C | 63,89 % |
| 2026-08-22 14:07:12 | 23,29 °C | 63,94 % |
| 2026-08-22 14:08:12 | 23,27 °C | 63,97 % |
| 2026-08-22 14:09:12 | 23,28 °C | 64,00 % |
| 2026-08-22 14:10:12 | 23,30 °C | 63,91 % |
| 2026-08-22 14:11:12 | 23,32 °C | 63,93 % |
| 2026-08-22 14:12:12 | 23,32 °C | 63,95 % |
| 2026-08-22 14:13:12 | 23,28 °C | 63,91 % |
| 2026-08-22 14:14:12 | 23,28 °C | 63,85 % |
| 2026-08-22 14:15:12 | 23,26 °C | 63,91 % |
| 2026-08-22 14:16:12 | 23,28 °C | 63,98 % |
| 2026-08-22 14:17:12 | 23,24 °C | 64,07 % |
| 2026-08-22 14:18:12 | 23,23 °C | 64,12 % |
| 2026-08-22 14:19:12 | 23,25 °C | 64,18 % |
| 2026-08-22 14:20:12 | 23,26 °C | 64,22 % |
| 2026-08-22 14:21:12 | 23,25 °C | 64,26 % |
| 2026-08-22 14:22:12 | 23,22 °C | 64,32 % |
| 2026-08-22 14:23:12 | 23,22 °C | 64,35 % |
| 2026-08-22 14:24:13 | 23,24 °C | 64,42 % |
| 2026-08-22 14:25:12 | 23,23 °C | 64,44 % |
| 2026-08-22 14:26:12 | 23,24 °C | 64,49 % |
| 2026-08-22 14:27:12 | 23,24 °C | 64,54 % |
| 2026-08-22 14:28:12 | 23,23 °C | 64,55 % |
| 2026-08-22 14:29:12 | 23,24 °C | 64,57 % |
| 2026-08-22 14:30:12 | 23,23 °C | 64,63 % |
| 2026-08-22 14:31:12 | 23,25 °C | 64,64 % |
| 2026-08-22 14:32:12 | 23,22 °C | 64,64 % |
| 2026-08-22 14:33:12 | 23,25 °C | 64,67 % |
| 2026-08-22 14:34:12 | 23,22 °C | 64,57 % |
| 2026-08-22 14:35:12 | 23,20 °C | 64,60 % |
| 2026-08-22 14:36:13 | 23,19 °C | 64,62 % |
| 2026-08-22 14:37:13 | 23,17 °C | 64,69 % |
| 2026-08-22 14:38:13 | 23,17 °C | 64,57 % |
| 2026-08-22 14:39:12 | 23,18 °C | 64,53 % |
| 2026-08-22 14:40:12 | 23,13 °C | 64,54 % |
| 2026-08-22 14:41:12 | 23,11 °C | 64,35 % |
| 2026-08-22 14:42:12 | 23,09 °C | 64,36 % |
| 2026-08-22 14:43:12 | 23,08 °C | 64,45 % |
| 2026-08-22 14:44:12 | 23,07 °C | 64,35 % |
| 2026-08-22 14:45:12 | 23,06 °C | 64,15 % |
| 2026-08-22 14:46:12 | 23,02 °C | 64,18 % |
| 2026-08-22 14:47:12 | 23,01 °C | 64,23 % |
| 2026-08-22 14:48:12 | 23,01 °C | 64,31 % |
| 2026-08-22 14:49:12 | 23,03 °C | 64,41 % |
| 2026-08-22 14:50:12 | 23,01 °C | 64,46 % |
| 2026-08-22 14:51:12 | 23,01 °C | 64,43 % |
| 2026-08-22 14:52:12 | 23,01 °C | 64,44 % |
| 2026-08-22 14:53:12 | 23,00 °C | 64,46 % |
| 2026-08-22 14:54:12 | 22,98 °C | 64,42 % |
| 2026-08-22 14:55:12 | 22,98 °C | 64,40 % |
| 2026-08-22 14:56:12 | 23,00 °C | 64,42 % |
| 2026-08-22 14:57:12 | 22,98 °C | 64,45 % |
| 2026-08-22 14:58:12 | 22,95 °C | 64,39 % |
| 2026-08-22 14:59:12 | 22,94 °C | 64,42 % |
| 2026-08-22 15:00:12 | 22,94 °C | 64,37 % |
| 2026-08-22 15:01:12 | 22,92 °C | 64,37 % |
| 2026-08-22 15:02:16 | 22,94 °C | 64,40 % |
| 2026-08-22 15:03:12 | 22,90 °C | 64,46 % |
| 2026-08-22 15:04:12 | 22,94 °C | 64,49 % |
| 2026-08-22 15:05:12 | 22,94 °C | 64,50 % |
| 2026-08-22 15:06:12 | 22,93 °C | 64,51 % |
| 2026-08-22 15:07:12 | 22,96 °C | 64,56 % |
| 2026-08-22 15:08:12 | 22,98 °C | 64,59 % |
| 2026-08-22 15:09:12 | 22,96 °C | 64,58 % |
| 2026-08-22 15:10:12 | 22,98 °C | 64,59 % |
| 2026-08-22 15:11:12 | 22,98 °C | 64,58 % |
| 2026-08-22 15:12:12 | 22,97 °C | 64,57 % |
| 2026-08-22 15:13:12 | 22,98 °C | 64,60 % |
| 2026-08-22 15:14:12 | 22,96 °C | 64,61 % |
| 2026-08-22 15:15:12 | 22,98 °C | 64,57 % |
| 2026-08-22 15:16:12 | 22,96 °C | 64,45 % |
| 2026-08-22 15:17:12 | 22,98 °C | 64,47 % |
| 2026-08-22 15:18:12 | 22,97 °C | 64,53 % |
| 2026-08-22 15:19:12 | 22,99 °C | 64,53 % |
| 2026-08-22 15:20:12 | 22,98 °C | 64,60 % |
| 2026-08-22 15:21:12 | 23,00 °C | 64,56 % |
| 2026-08-22 15:22:12 | 23,04 °C | 64,54 % |
| 2026-08-22 15:23:12 | 23,05 °C | 64,52 % |
| 2026-08-22 15:24:12 | 23,05 °C | 64,58 % |
| 2026-08-22 15:25:12 | 23,05 °C | 64,60 % |
| 2026-08-22 15:26:13 | 23,07 °C | 64,56 % |
| 2026-08-22 15:27:12 | 23,05 °C | 64,58 % |
| 2026-08-22 15:28:12 | 23,09 °C | 64,58 % |
| 2026-08-22 15:29:12 | 23,11 °C | 64,61 % |
| 2026-08-22 15:30:12 | 23,09 °C | 64,62 % |
| 2026-08-22 15:31:12 | 23,13 °C | 64,65 % |
| 2026-08-22 15:32:12 | 23,14 °C | 64,58 % |
| 2026-08-22 15:33:12 | 23,11 °C | 64,64 % |
| 2026-08-22 15:34:12 | 23,13 °C | 64,68 % |
| 2026-08-22 15:35:12 | 23,15 °C | 64,69 % |
| 2026-08-22 15:36:12 | 23,17 °C | 64,71 % |
| 2026-08-22 15:37:12 | 23,17 °C | 64,75 % |
| 2026-08-22 15:38:13 | 23,18 °C | 64,74 % |
| 2026-08-22 15:39:12 | 23,18 °C | 64,77 % |
| 2026-08-22 15:40:12 | 23,19 °C | 64,76 % |
| 2026-08-22 15:41:12 | 23,19 °C | 64,83 % |
| 2026-08-22 15:42:12 | 23,22 °C | 64,71 % |
| 2026-08-22 15:43:12 | 23,18 °C | 64,73 % |
| 2026-08-22 15:44:12 | 23,20 °C | 64,77 % |
| 2026-08-22 15:45:12 | 23,22 °C | 64,78 % |
| 2026-08-22 15:46:12 | 23,22 °C | 64,77 % |
| 2026-08-22 15:47:12 | 23,22 °C | 64,76 % |
| 2026-08-22 15:48:12 | 23,22 °C | 64,78 % |
| 2026-08-22 15:49:12 | 23,24 °C | 64,86 % |
| 2026-08-22 15:50:13 | 23,22 °C | 64,84 % |
| 2026-08-22 15:51:12 | 23,21 °C | 64,81 % |
| 2026-08-22 15:52:12 | 23,23 °C | 64,81 % |
| 2026-08-22 15:53:12 | 23,23 °C | 64,83 % |
| 2026-08-22 15:54:12 | 23,25 °C | 64,81 % |
| 2026-08-22 15:55:12 | 23,25 °C | 64,76 % |
| 2026-08-22 15:56:12 | 23,22 °C | 64,71 % |
| 2026-08-22 15:57:12 | 23,23 °C | 64,75 % |
| 2026-08-22 15:58:12 | 23,23 °C | 64,70 % |
| 2026-08-22 15:59:12 | 23,23 °C | 64,67 % |
| 2026-08-22 16:00:12 | 23,25 °C | 64,55 % |
| 2026-08-22 16:01:12 | 23,23 °C | 64,54 % |
| 2026-08-22 16:02:12 | 23,25 °C | 64,48 % |
| 2026-08-22 16:03:12 | 23,22 °C | 64,49 % |
| 2026-08-22 16:04:12 | 23,23 °C | 64,38 % |
| 2026-08-22 16:05:12 | 23,22 °C | 64,31 % |
| 2026-08-22 16:06:12 | 23,23 °C | 64,27 % |
| 2026-08-22 16:07:12 | 23,20 °C | 64,30 % |
| 2026-08-22 16:08:12 | 23,21 °C | 64,38 % |
| 2026-08-22 16:09:12 | 23,21 °C | 64,40 % |
| 2026-08-22 16:10:12 | 23,20 °C | 64,34 % |
| 2026-08-22 16:11:12 | 23,20 °C | 64,33 % |
| 2026-08-22 16:12:12 | 23,22 °C | 64,41 % |
| 2026-08-22 16:13:12 | 23,22 °C | 64,41 % |
| 2026-08-22 16:14:12 | 23,23 °C | 64,48 % |
| 2026-08-22 16:15:12 | 23,25 °C | 64,41 % |
| 2026-08-22 16:16:12 | 23,24 °C | 64,10 % |
| 2026-08-22 16:17:12 | 23,22 °C | 64,11 % |
| 2026-08-22 16:18:12 | 23,25 °C | 64,15 % |
| 2026-08-22 16:19:12 | 23,23 °C | 64,18 % |
| 2026-08-22 16:20:12 | 23,23 °C | 64,19 % |
| 2026-08-22 16:21:12 | 23,26 °C | 64,18 % |
| 2026-08-22 16:22:12 | 23,23 °C | 64,24 % |
| 2026-08-22 16:23:12 | 23,25 °C | 64,15 % |
| 2026-08-22 16:24:12 | 23,27 °C | 64,15 % |
| 2026-08-22 16:25:12 | 23,27 °C | 64,20 % |
| 2026-08-22 16:26:12 | 23,28 °C | 64,25 % |
| 2026-08-22 16:27:12 | 23,26 °C | 64,28 % |
| 2026-08-22 16:28:14 | 23,29 °C | 64,32 % |
| 2026-08-22 16:29:12 | 23,29 °C | 64,34 % |
| 2026-08-22 16:30:12 | 23,31 °C | 64,35 % |
| 2026-08-22 16:31:12 | 23,31 °C | 64,35 % |
| 2026-08-22 16:32:12 | 23,30 °C | 64,37 % |
| 2026-08-22 16:33:12 | 23,30 °C | 64,35 % |
| 2026-08-22 16:34:12 | 23,30 °C | 64,40 % |
| 2026-08-22 16:35:12 | 23,32 °C | 64,35 % |
| 2026-08-22 16:36:12 | 23,30 °C | 64,32 % |
| 2026-08-22 16:37:12 | 23,31 °C | 64,36 % |
| 2026-08-22 16:38:12 | 23,32 °C | 64,22 % |
| 2026-08-22 16:39:12 | 23,30 °C | 64,21 % |
| 2026-08-22 16:40:12 | 23,32 °C | 64,23 % |
| 2026-08-22 16:41:12 | 23,29 °C | 64,15 % |
| 2026-08-22 16:42:12 | 23,30 °C | 64,21 % |
| 2026-08-22 16:43:12 | 23,31 °C | 64,09 % |
| 2026-08-22 16:44:12 | 23,28 °C | 63,96 % |
| 2026-08-22 16:45:12 | 23,27 °C | 63,86 % |
| 2026-08-22 16:46:12 | 23,29 °C | 63,70 % |
| 2026-08-22 16:47:12 | 23,28 °C | 63,49 % |
| 2026-08-22 16:48:12 | 23,24 °C | 63,36 % |
| 2026-08-22 16:49:12 | 23,23 °C | 63,17 % |
| 2026-08-22 16:50:12 | 23,24 °C | 63,30 % |
| 2026-08-22 16:51:12 | 23,23 °C | 63,23 % |
| 2026-08-22 16:52:12 | 23,23 °C | 63,35 % |
| 2026-08-22 16:53:12 | 23,26 °C | 63,42 % |
| 2026-08-22 16:54:12 | 23,25 °C | 63,47 % |
| 2026-08-22 16:55:12 | 23,23 °C | 63,42 % |
| 2026-08-22 16:56:12 | 23,25 °C | 63,46 % |
| 2026-08-22 16:57:12 | 23,26 °C | 63,44 % |
| 2026-08-22 16:58:12 | 23,26 °C | 63,47 % |
| 2026-08-22 16:59:12 | 23,26 °C | 63,46 % |
| 2026-08-22 17:00:12 | 23,26 °C | 63,47 % |
| 2026-08-22 17:01:12 | 23,27 °C | 63,50 % |
| 2026-08-22 17:02:12 | 23,28 °C | 63,48 % |
| 2026-08-22 17:03:12 | 23,33 °C | 63,52 % |
| 2026-08-22 17:04:12 | 23,37 °C | 63,49 % |
| 2026-08-22 17:05:12 | 23,36 °C | 63,45 % |
| 2026-08-22 17:06:12 | 23,38 °C | 63,45 % |
| 2026-08-22 17:07:12 | 23,42 °C | 63,40 % |
| 2026-08-22 17:08:12 | 23,38 °C | 63,38 % |
Boveda-Referenz
Vorhandener Sollwert: 62 % Luftfeuchtigkeit.
Durchschnitt: 67,02 % · Abweichung: 5,02 Prozentpunkte
Bosch Vergleichssensor
1321 Messungen
Temperatur
| Minimum | 22,00 °C |
|---|---|
| Maximum | 25,50 °C |
| Durchschnitt | 23,01 °C |
| Gültige Messungen | 1321 |
SHT41 ↔ Bosch Vergleich: 23,11 °C / 23,01 °C
Differenz: 0,10 °C
Luftfeuchte
| Minimum | 58,00 % |
|---|---|
| Maximum | 62,10 % |
| Durchschnitt | 60,50 % |
| Gültige Messungen | 1321 |
SHT41 ↔ Bosch Vergleich: 67,02 % / 60,50 %
Differenz: 6,52 Prozentpunkte